Time,TemperatureF,DewpointF,PressureIn,WindDirection,WindDirectionDegrees,WindSpeedMPH,WindSpeedGustMPH,Humidity,HourlyPrecipIn,Conditions,Clouds,dailyrainin,SoftwareType,DateUTC
2013-02-27 00:00:00,66.6,57.2,29.77,WNW,292,1.0,4.0,71,0.00,,,0.00,WeatherTracker,2013-02-27 05:00:00,
2013-02-27 00:01:00,66.6,57.2,29.77,West,270,3.0,3.0,71,0.00,,,0.00,WeatherTracker,2013-02-27 05:01:00,
2013-02-27 00:05:00,66.6,57.2,29.77,WNW,292,3.0,4.0,71,0.00,,,0.00,WeatherTracker,2013-02-27 05:05:00,
2013-02-27 00:06:00,66.6,57.2,29.77,WNW,292,4.0,4.0,71,0.00,,,0.00,WeatherTracker,2013-02-27 05:06:00,
2013-02-27 00:10:00,66.6,57.2,29.80,WNW,292,2.0,5.0,71,0.00,,,0.00,WeatherTracker,2013-02-27 05:10:00,
2013-02-27 00:11:00,66.6,57.2,29.80,WNW,292,3.0,4.0,71,0.00,,,0.00,WeatherTracker,2013-02-27 05:11:00,
2013-02-27 00:15:00,66.6,57.2,29.80,West,270,1.0,5.0,71,0.00,,,0.00,WeatherTracker,2013-02-27 05:15:00,
2013-02-27 00:16:00,66.4,55.4,29.80,WSW,247,4.0,4.0,70,0.00,,,0.00,WeatherTracker,2013-02-27 05:16:00,
2013-02-27 00:20:00,66.4,55.4,29.80,WNW,292,2.0,2.0,70,0.00,,,0.00,WeatherTracker,2013-02-27 05:20:00,
2013-02-27 00:21:00,66.4,55.4,29.80,WNW,292,2.0,2.0,70,0.00,,,0.00,WeatherTracker,2013-02-27 05:21:00,
2013-02-27 00:25:00,66.4,55.4,29.77,WNW,292,4.0,4.0,70,0.00,,,0.00,WeatherTracker,2013-02-27 05:25:00,
2013-02-27 00:26:00,66.4,55.4,29.77,NW,315,3.0,3.0,70,0.00,,,0.00,WeatherTracker,2013-02-27 05:26:00,
2013-02-27 00:27:00,66.4,55.4,29.77,SW,225,3.0,3.0,70,0.00,,,0.00,WeatherTracker,2013-02-27 05:27:00,
2013-02-27 00:30:00,66.4,55.4,29.77,WSW,247,4.0,4.0,70,0.00,,,0.00,WeatherTracker,2013-02-27 05:30:00,
2013-02-27 00:31:00,66.4,55.4,29.77,WSW,247,3.0,3.0,70,0.00,,,0.00,WeatherTracker,2013-02-27 05:31:00,
2013-02-27 00:32:00,66.4,55.4,29.77,SSW,202,4.0,4.0,70,0.00,,,0.00,WeatherTracker,2013-02-27 05:32:00,
2013-02-27 00:35:00,66.4,55.4,29.77,WSW,247,2.0,2.0,69,0.00,,,0.00,WeatherTracker,2013-02-27 05:35:00,
2013-02-27 00:36:00,66.4,55.4,29.77,WSW,247,2.0,2.0,70,0.00,,,0.00,WeatherTracker,2013-02-27 05:36:00,
2013-02-27 00:37:00,66.4,55.4,29.77,NNW,337,1.0,0.0,69,0.00,,,0.00,WeatherTracker,2013-02-27 05:37:00,
2013-02-27 00:40:00,66.4,55.4,29.77,WSW,247,4.0,5.0,69,0.00,,,0.00,WeatherTracker,2013-02-27 05:40:00,
2013-02-27 00:41:00,66.4,55.4,29.77,WNW,292,4.0,4.0,69,0.00,,,0.00,WeatherTracker,2013-02-27 05:41:00,
2013-02-27 00:42:00,66.4,55.4,29.77,NW,315,3.0,3.0,69,0.00,,,0.00,WeatherTracker,2013-02-27 05:42:00,
2013-02-27 00:46:00,66.4,55.4,29.77,West,270,3.0,3.0,69,0.00,,,0.00,WeatherTracker,2013-02-27 05:46:00,
2013-02-27 00:47:00,66.4,55.4,29.77,NW,315,3.0,5.0,69,0.00,,,0.00,WeatherTracker,2013-02-27 05:47:00,
2013-02-27 00:48:00,66.4,55.4,29.77,WNW,292,3.0,3.0,69,0.00,,,0.00,WeatherTracker,2013-02-27 05:48:00,
2013-02-27 00:51:00,66.2,55.4,29.77,WNW,292,2.0,2.0,69,0.00,,,0.00,WeatherTracker,2013-02-27 05:51:00,
2013-02-27 00:52:00,66.2,55.4,29.77,WSW,247,3.0,3.0,69,0.00,,,0.00,WeatherTracker,2013-02-27 05:52:00,
2013-02-27 00:53:00,66.2,55.4,29.77,WNW,292,2.0,2.0,69,0.00,,,0.00,WeatherTracker,2013-02-27 05:53:00,
2013-02-27 00:56:00,66.2,55.4,29.77,WNW,292,3.0,3.0,69,0.00,,,0.00,WeatherTracker,2013-02-27 05:56:00,
2013-02-27 00:57:00,66.2,55.4,29.77,NE,45,3.0,3.0,69,0.00,,,0.00,WeatherTracker,2013-02-27 05:57:00,
2013-02-27 00:59:00,66.2,55.4,29.77,WSW,247,3.0,4.0,69,0.00,,,0.00,WeatherTracker,2013-02-27 05:59:00,
2013-02-27 01:01:00,66.2,55.4,29.77,West,270,4.0,4.0,69,0.00,,,0.00,WeatherTracker,2013-02-27 06:01:00,
2013-02-27 01:02:00,66.2,55.4,29.77,NNW,337,1.0,5.0,69,0.00,,,0.00,WeatherTracker,2013-02-27 06:02:00,
2013-02-27 01:04:00,66.2,55.4,29.77,SSW,202,3.0,4.0,69,0.00,,,0.00,WeatherTracker,2013-02-27 06:04:00,
2013-02-27 01:06:00,66.2,55.4,29.77,SW,225,2.0,2.0,69,0.00,,,0.00,WeatherTracker,2013-02-27 06:06:00,
2013-02-27 01:07:00,66.0,55.4,29.77,WSW,247,1.0,2.0,69,0.00,,,0.00,WeatherTracker,2013-02-27 06:07:00,
2013-02-27 01:09:00,66.0,55.4,29.77,SSW,202,1.0,0.0,69,0.00,,,0.00,WeatherTracker,2013-02-27 06:09:00,
2013-02-27 01:12:00,66.0,55.4,29.77,WSW,247,1.0,2.0,69,0.00,,,0.00,WeatherTracker,2013-02-27 06:12:00,
2013-02-27 01:13:00,66.0,55.4,29.77,WNW,292,3.0,3.0,69,0.00,,,0.00,WeatherTracker,2013-02-27 06:13:00,
2013-02-27 01:14:00,66.0,55.4,29.77,SW,225,2.0,2.0,69,0.00,,,0.00,WeatherTracker,2013-02-27 06:14:00,
2013-02-27 01:17:00,66.0,55.4,29.77,WNW,292,3.0,4.0,69,0.00,,,0.00,WeatherTracker,2013-02-27 06:17:00,
2013-02-27 01:18:00,66.0,55.4,29.77,WNW,292,3.0,3.0,69,0.00,,,0.00,WeatherTracker,2013-02-27 06:18:00,
2013-02-27 01:20:00,66.0,55.4,29.77,WNW,292,2.0,3.0,69,0.00,,,0.00,WeatherTracker,2013-02-27 06:20:00,
2013-02-27 01:22:00,66.0,55.4,29.77,WSW,247,2.0,2.0,69,0.00,,,0.00,WeatherTracker,2013-02-27 06:22:00,
2013-02-27 01:23:00,66.0,55.4,29.77,WNW,292,1.0,2.0,69,0.00,,,0.00,WeatherTracker,2013-02-27 06:23:00,
2013-02-27 01:25:00,66.0,55.4,29.77,WSW,247,2.0,2.0,69,0.00,,,0.00,WeatherTracker,2013-02-27 06:25:00,
2013-02-27 01:27:00,66.0,55.4,29.77,WNW,292,1.0,0.0,69,0.00,,,0.00,WeatherTracker,2013-02-27 06:27:00,
2013-02-27 01:28:00,66.0,55.4,29.77,WSW,247,1.0,0.0,69,0.00,,,0.00,WeatherTracker,2013-02-27 06:28:00,
2013-02-27 01:30:00,66.0,55.4,29.77,NW,315,4.0,4.0,69,0.00,,,0.00,WeatherTracker,2013-02-27 06:30:00,
2013-02-27 01:32:00,66.0,55.4,29.77,WSW,247,3.0,4.0,69,0.00,,,0.00,WeatherTracker,2013-02-27 06:32:00,
2013-02-27 01:33:00,66.0,55.4,29.77,WNW,292,2.0,2.0,69,0.00,,,0.00,WeatherTracker,2013-02-27 06:33:00,
2013-02-27 01:34:00,66.0,55.4,29.77,WSW,247,2.0,2.0,69,0.00,,,0.00,WeatherTracker,2013-02-27 06:34:00,
2013-02-27 01:36:00,66.2,55.4,29.77,North,0,1.0,3.0,68,0.00,,,0.00,WeatherTracker,2013-02-27 06:36:00,
2013-02-27 01:38:00,66.2,55.4,29.77,NW,315,1.0,1.0,68,0.00,,,0.00,WeatherTracker,2013-02-27 06:38:00,
2013-02-27 01:39:00,66.2,55.4,29.77,WNW,292,1.0,2.0,68,0.00,,,0.00,WeatherTracker,2013-02-27 06:39:00,
2013-02-27 01:42:00,66.2,55.4,29.77,South,180,3.0,3.0,68,0.00,,,0.00,WeatherTracker,2013-02-27 06:42:00,
2013-02-27 01:43:00,66.0,55.4,29.77,South,180,3.0,0.0,68,0.00,,,0.00,WeatherTracker,2013-02-27 06:43:00,
2013-02-27 01:44:00,66.0,55.4,29.77,SW,225,0.0,3.0,68,0.00,,,0.00,WeatherTracker,2013-02-27 06:44:00,
2013-02-27 01:48:00,66.0,55.4,29.77,NNW,337,2.0,2.0,68,0.00,,,0.00,WeatherTracker,2013-02-27 06:48:00,
2013-02-27 01:49:00,66.0,55.4,29.77,West,270,2.0,0.0,68,0.00,,,0.00,WeatherTracker,2013-02-27 06:49:00,
2013-02-27 01:53:00,66.0,55.4,29.77,West,270,1.0,2.0,68,0.00,,,0.00,WeatherTracker,2013-02-27 06:53:00,
2013-02-27 01:54:00,66.0,55.4,29.77,WNW,292,2.0,3.0,68,0.00,,,0.00,WeatherTracker,2013-02-27 06:54:00,
2013-02-27 01:55:00,65.8,55.4,29.77,NNW,337,2.0,2.0,68,0.00,,,0.00,WeatherTracker,2013-02-27 06:55:00,
2013-02-27 01:58:00,65.8,55.4,29.77,NW,315,2.0,2.0,68,0.00,,,0.00,WeatherTracker,2013-02-27 06:58:00,
2013-02-27 01:59:00,65.8,55.4,29.77,NNW,337,3.0,3.0,68,0.00,,,0.00,WeatherTracker,2013-02-27 06:59:00,
2013-02-27 02:00:00,65.8,55.4,29.77,WNW,292,3.0,3.0,68,0.00,,,0.00,WeatherTracker,2013-02-27 07:00:00,
2013-02-27 02:03:00,65.8,55.4,29.77,NNW,337,2.0,3.0,68,0.00,,,0.00,WeatherTracker,2013-02-27 07:03:00,
2013-02-27 02:04:00,65.8,55.4,29.77,NNW,337,2.0,2.0,68,0.00,,,0.00,WeatherTracker,2013-02-27 07:04:00,
2013-02-27 02:05:00,65.8,55.4,29.77,WNW,292,2.0,2.0,68,0.00,,,0.00,WeatherTracker,2013-02-27 07:05:00,
2013-02-27 02:06:00,65.8,55.4,29.77,WNW,292,2.0,2.0,68,0.00,,,0.00,WeatherTracker,2013-02-27 07:06:00,
2013-02-27 02:08:00,66.0,55.4,29.77,NNW,337,2.0,2.0,68,0.00,,,0.00,WeatherTracker,2013-02-27 07:08:00,
2013-02-27 02:10:00,65.8,55.4,29.77,NNW,337,0.0,0.0,68,0.00,,,0.00,WeatherTracker,2013-02-27 07:10:00,
2013-02-27 02:11:00,65.8,55.4,29.77,NNW,337,0.0,0.0,68,0.00,,,0.00,WeatherTracker,2013-02-27 07:11:00,
2013-02-27 02:12:00,65.8,55.4,29.77,NW,315,0.0,0.0,68,0.00,,,0.00,WeatherTracker,2013-02-27 07:12:00,
2013-02-27 02:14:00,65.8,55.4,29.77,WNW,292,1.0,2.0,68,0.00,,,0.00,WeatherTracker,2013-02-27 07:14:00,
2013-02-27 02:16:00,65.8,55.4,29.77,WNW,292,0.0,0.0,68,0.00,,,0.00,WeatherTracker,2013-02-27 07:16:00,
2013-02-27 02:17:00,65.8,55.4,29.77,WNW,292,0.0,0.0,68,0.00,,,0.00,WeatherTracker,2013-02-27 07:17:00,
2013-02-27 02:19:00,65.8,55.4,29.77,NNW,337,0.0,0.0,68,0.00,,,0.00,WeatherTracker,2013-02-27 07:19:00,
2013-02-27 02:21:00,65.8,55.4,29.77,West,270,0.0,0.0,68,0.00,,,0.00,WeatherTracker,2013-02-27 07:21:00,
2013-02-27 02:23:00,65.8,55.4,29.77,West,270,0.0,0.0,68,0.00,,,0.00,WeatherTracker,2013-02-27 07:23:00,
2013-02-27 02:24:00,65.8,55.4,29.77,West,270,0.0,0.0,68,0.00,,,0.00,WeatherTracker,2013-02-27 07:24:00,
2013-02-27 02:26:00,65.7,55.4,29.77,WNW,292,1.0,2.0,68,0.00,,,0.00,WeatherTracker,2013-02-27 07:26:00,
2013-02-27 02:29:00,65.7,55.4,29.77,NW,315,0.0,1.0,69,0.00,,,0.00,WeatherTracker,2013-02-27 07:29:00,
2013-02-27 02:31:00,65.7,55.4,29.77,WNW,292,0.0,1.0,69,0.00,,,0.00,WeatherTracker,2013-02-27 07:31:00,
2013-02-27 02:32:00,65.7,55.4,29.77,WNW,292,1.0,0.0,69,0.00,,,0.00,WeatherTracker,2013-02-27 07:32:00,
2013-02-27 02:34:00,65.7,55.4,29.77,NW,315,1.0,2.0,69,0.00,,,0.00,WeatherTracker,2013-02-27 07:34:00,
2013-02-27 02:36:00,65.7,55.4,29.77,WSW,247,1.0,0.0,69,0.00,,,0.00,WeatherTracker,2013-02-27 07:36:00,
2013-02-27 02:37:00,65.7,55.4,29.77,WNW,292,0.0,1.0,69,0.00,,,0.00,WeatherTracker,2013-02-27 07:37:00,
2013-02-27 02:39:00,65.8,55.4,29.77,WNW,292,2.0,0.0,69,0.00,,,0.00,WeatherTracker,2013-02-27 07:39:00,
2013-02-27 02:41:00,65.7,55.4,29.77,NW,315,1.0,2.0,69,0.00,,,0.00,WeatherTracker,2013-02-27 07:41:00,
2013-02-27 02:42:00,65.7,55.4,29.77,WNW,292,1.0,2.0,69,0.00,,,0.00,WeatherTracker,2013-02-27 07:42:00,
2013-02-27 02:44:00,65.7,55.4,29.77,NW,315,2.0,2.0,69,0.00,,,0.00,WeatherTracker,2013-02-27 07:44:00,
2013-02-27 02:46:00,65.7,55.4,29.77,WNW,292,1.0,0.0,69,0.00,,,0.00,WeatherTracker,2013-02-27 07:46:00,
2013-02-27 02:47:00,65.7,55.4,29.77,WNW,292,1.0,0.0,69,0.00,,,0.00,WeatherTracker,2013-02-27 07:47:00,
2013-02-27 02:49:00,65.7,55.4,29.77,SSW,202,0.0,0.0,69,0.00,,,0.00,WeatherTracker,2013-02-27 07:49:00,
2013-02-27 02:52:00,65.7,55.4,29.77,SW,225,0.0,0.0,69,0.00,,,0.00,WeatherTracker,2013-02-27 07:52:00,
2013-02-27 02:54:00,65.5,55.4,29.77,SW,225,0.0,0.0,69,0.00,,,0.00,WeatherTracker,2013-02-27 07:54:00,
2013-02-27 02:55:00,65.5,55.4,29.77,SW,225,0.0,0.0,69,0.00,,,0.00,WeatherTracker,2013-02-27 07:55:00,
2013-02-27 02:57:00,65.5,55.4,29.77,WNW,292,0.0,0.0,69,0.00,,,0.00,WeatherTracker,2013-02-27 07:57:00,
2013-02-27 02:58:00,65.5,55.4,29.77,North,0,0.0,0.0,69,0.00,,,0.00,WeatherTracker,2013-02-27 07:58:00,
2013-02-27 02:59:00,65.5,55.4,29.77,NNW,337,0.0,0.0,69,0.00,,,0.00,WeatherTracker,2013-02-27 07:59:00,
2013-02-27 03:00:00,65.5,55.4,29.77,NW,315,0.0,0.0,69,0.00,,,0.00,WeatherTracker,2013-02-27 08:00:00,
2013-02-27 03:03:00,65.5,55.4,29.77,NNW,337,0.0,0.0,69,0.00,,,0.00,WeatherTracker,2013-02-27 08:03:00,
2013-02-27 03:04:00,65.5,55.4,29.77,WNW,292,2.0,2.0,69,0.00,,,0.00,WeatherTracker,2013-02-27 08:04:00,
2013-02-27 03:05:00,65.5,55.4,29.77,NW,315,2.0,3.0,69,0.00,,,0.00,WeatherTracker,2013-02-27 08:05:00,
2013-02-27 03:08:00,65.5,55.4,29.77,West,270,1.0,1.0,70,0.00,,,0.00,WeatherTracker,2013-02-27 08:08:00,
2013-02-27 03:10:00,65.5,55.4,29.77,NNW,337,1.0,0.0,70,0.00,,,0.00,WeatherTracker,2013-02-27 08:10:00,
2013-02-27 03:13:00,65.7,55.4,29.77,WNW,292,1.0,0.0,70,0.00,,,0.00,WeatherTracker,2013-02-27 08:13:00,
2013-02-27 03:15:00,65.7,55.4,29.77,NW,315,1.0,2.0,70,0.00,,,0.00,WeatherTracker,2013-02-27 08:15:00,
2013-02-27 03:18:00,65.7,55.4,29.77,WNW,292,2.0,2.0,70,0.00,,,0.00,WeatherTracker,2013-02-27 08:18:00,
2013-02-27 03:20:00,65.7,55.4,29.77,WNW,292,2.0,2.0,70,0.00,,,0.00,WeatherTracker,2013-02-27 08:20:00,
2013-02-27 03:21:00,65.7,55.4,29.77,WNW,292,2.0,2.0,70,0.00,,,0.00,WeatherTracker,2013-02-27 08:21:00,
2013-02-27 03:23:00,65.7,55.4,29.77,WNW,292,2.0,2.0,70,0.00,,,0.00,WeatherTracker,2013-02-27 08:23:00,
2013-02-27 03:24:00,65.7,55.4,29.77,NNE,22,2.0,3.0,70,0.00,,,0.00,WeatherTracker,2013-02-27 08:24:00,
2013-02-27 03:25:00,65.7,55.4,29.77,WNW,292,2.0,0.0,70,0.00,,,0.00,WeatherTracker,2013-02-27 08:25:00,
2013-02-27 03:26:00,65.7,55.4,29.77,NNW,337,1.0,2.0,70,0.00,,,0.00,WeatherTracker,2013-02-27 08:26:00,
2013-02-27 03:28:00,65.7,55.4,29.77,WNW,292,1.0,2.0,70,0.00,,,0.00,WeatherTracker,2013-02-27 08:28:00,
2013-02-27 03:29:00,65.7,55.4,29.77,WNW,292,1.0,2.0,70,0.00,,,0.00,WeatherTracker,2013-02-27 08:29:00,
2013-02-27 03:30:00,65.7,55.4,29.77,NNW,337,2.0,2.0,70,0.00,,,0.00,WeatherTracker,2013-02-27 08:30:00,
2013-02-27 03:31:00,65.7,55.4,29.77,NNW,337,0.0,0.0,70,0.00,,,0.00,WeatherTracker,2013-02-27 08:31:00,
2013-02-27 03:33:00,65.7,55.4,29.77,WNW,292,2.0,2.0,70,0.00,,,0.00,WeatherTracker,2013-02-27 08:33:00,
2013-02-27 03:34:00,65.7,55.4,29.77,WNW,292,2.0,0.0,70,0.00,,,0.00,WeatherTracker,2013-02-27 08:34:00,
2013-02-27 03:35:00,65.7,55.4,29.77,NW,315,1.0,2.0,70,0.00,,,0.00,WeatherTracker,2013-02-27 08:35:00,
2013-02-27 03:37:00,65.7,55.4,29.77,WNW,292,2.0,2.0,70,0.00,,,0.00,WeatherTracker,2013-02-27 08:37:00,
2013-02-27 03:38:00,65.5,55.4,29.77,NNW,337,1.0,2.0,70,0.00,,,0.00,WeatherTracker,2013-02-27 08:38:00,
2013-02-27 03:39:00,65.5,55.4,29.77,NNW,337,2.0,2.0,70,0.00,,,0.00,WeatherTracker,2013-02-27 08:39:00,
2013-02-27 03:40:00,65.5,55.4,29.77,NNW,337,1.0,4.0,70,0.00,,,0.00,WeatherTracker,2013-02-27 08:40:00,
2013-02-27 03:42:00,65.5,55.4,29.77,North,0,1.0,2.0,70,0.00,,,0.00,WeatherTracker,2013-02-27 08:42:00,
2013-02-27 03:43:00,65.5,55.4,29.77,SW,225,0.0,0.0,70,0.00,,,0.00,WeatherTracker,2013-02-27 08:43:00,
2013-02-27 03:44:00,65.5,55.4,29.77,SW,225,0.0,0.0,70,0.00,,,0.00,WeatherTracker,2013-02-27 08:44:00,
2013-02-27 03:45:00,65.5,55.4,29.77,SW,225,0.0,0.0,70,0.00,,,0.00,WeatherTracker,2013-02-27 08:45:00,
2013-02-27 03:48:00,65.3,55.4,29.77,NW,315,0.0,0.0,70,0.00,,,0.00,WeatherTracker,2013-02-27 08:48:00,
2013-02-27 03:49:00,65.3,55.4,29.77,WNW,292,0.0,1.0,70,0.00,,,0.00,WeatherTracker,2013-02-27 08:49:00,
2013-02-27 03:50:00,65.3,55.4,29.77,NNW,337,1.0,2.0,70,0.00,,,0.00,WeatherTracker,2013-02-27 08:50:00,
2013-02-27 03:54:00,65.3,55.4,29.77,NNW,337,1.0,2.0,70,0.00,,,0.00,WeatherTracker,2013-02-27 08:54:00,
2013-02-27 03:55:00,65.3,55.4,29.77,NNW,337,1.0,0.0,70,0.00,,,0.00,WeatherTracker,2013-02-27 08:55:00,
2013-02-27 03:59:00,65.1,55.4,29.77,NW,315,0.0,0.0,70,0.00,,,0.00,WeatherTracker,2013-02-27 08:59:00,
2013-02-27 04:00:00,65.1,55.4,29.77,NW,315,0.0,0.0,70,0.00,,,0.00,WeatherTracker,2013-02-27 09:00:00,
2013-02-27 04:01:00,65.1,55.4,29.77,NW,315,0.0,0.0,70,0.00,,,0.00,WeatherTracker,2013-02-27 09:01:00,
2013-02-27 04:04:00,64.9,55.4,29.77,NW,315,0.0,0.0,71,0.00,,,0.00,WeatherTracker,2013-02-27 09:04:00,
2013-02-27 04:05:00,64.9,55.4,29.77,NW,315,0.0,0.0,71,0.00,,,0.00,WeatherTracker,2013-02-27 09:05:00,
2013-02-27 04:06:00,64.9,55.4,29.77,NNW,337,0.0,0.0,71,0.00,,,0.00,WeatherTracker,2013-02-27 09:06:00,
2013-02-27 04:09:00,64.9,55.4,29.77,NW,315,0.0,0.0,71,0.00,,,0.00,WeatherTracker,2013-02-27 09:09:00,
2013-02-27 04:10:00,64.9,55.4,29.77,NNW,337,0.0,0.0,71,0.00,,,0.00,WeatherTracker,2013-02-27 09:10:00,
2013-02-27 04:11:00,64.9,55.4,29.77,NNW,337,0.0,2.0,71,0.00,,,0.00,WeatherTracker,2013-02-27 09:11:00,
2013-02-27 04:14:00,64.9,55.4,29.77,NNW,337,2.0,2.0,71,0.00,,,0.00,WeatherTracker,2013-02-27 09:14:00,
2013-02-27 04:15:00,64.9,55.4,29.77,NNW,337,1.0,1.0,71,0.00,,,0.00,WeatherTracker,2013-02-27 09:15:00,
2013-02-27 04:16:00,64.9,55.4,29.77,NNW,337,1.0,1.0,71,0.00,,,0.00,WeatherTracker,2013-02-27 09:16:00,
2013-02-27 04:19:00,64.9,55.4,29.77,NNW,337,2.0,2.0,71,0.00,,,0.00,WeatherTracker,2013-02-27 09:19:00,
2013-02-27 04:20:00,64.9,55.4,29.77,NNW,337,2.0,3.0,71,0.00,,,0.00,WeatherTracker,2013-02-27 09:20:00,
2013-02-27 04:21:00,64.9,55.4,29.77,NNW,337,1.0,3.0,71,0.00,,,0.00,WeatherTracker,2013-02-27 09:21:00,
2013-02-27 04:24:00,64.9,55.4,29.77,North,0,2.0,2.0,71,0.00,,,0.00,WeatherTracker,2013-02-27 09:24:00,
2013-02-27 04:25:00,64.9,55.4,29.77,NNW,337,2.0,2.0,72,0.00,,,0.00,WeatherTracker,2013-02-27 09:25:00,
2013-02-27 04:26:00,64.9,55.4,29.77,NW,315,2.0,2.0,72,0.00,,,0.00,WeatherTracker,2013-02-27 09:26:00,
2013-02-27 04:29:00,64.9,55.4,29.77,NNW,337,2.0,2.0,72,0.00,,,0.00,WeatherTracker,2013-02-27 09:29:00,
2013-02-27 04:30:00,64.9,55.4,29.77,NNE,22,2.0,2.0,72,0.00,,,0.00,WeatherTracker,2013-02-27 09:30:00,
2013-02-27 04:31:00,64.9,55.4,29.77,North,0,2.0,3.0,72,0.00,,,0.00,WeatherTracker,2013-02-27 09:31:00,
2013-02-27 04:32:00,64.9,55.4,29.77,NNW,337,2.0,2.0,72,0.00,,,0.00,WeatherTracker,2013-02-27 09:32:00,
2013-02-27 04:34:00,64.8,55.4,29.77,NNW,337,1.0,1.0,72,0.00,,,0.00,WeatherTracker,2013-02-27 09:34:00,
2013-02-27 04:35:00,64.8,55.4,29.77,NNW,337,2.0,2.0,72,0.00,,,0.00,WeatherTracker,2013-02-27 09:35:00,
2013-02-27 04:36:00,64.8,55.4,29.77,North,0,2.0,2.0,72,0.00,,,0.00,WeatherTracker,2013-02-27 09:36:00,
2013-02-27 04:37:00,64.8,55.4,29.77,North,0,2.0,3.0,72,0.00,,,0.00,WeatherTracker,2013-02-27 09:37:00,
2013-02-27 04:39:00,64.8,55.4,29.77,NNW,337,2.0,2.0,72,0.00,,,0.00,WeatherTracker,2013-02-27 09:39:00,
2013-02-27 04:41:00,64.8,55.4,29.77,NNE,22,2.0,2.0,72,0.00,,,0.00,WeatherTracker,2013-02-27 09:41:00,
2013-02-27 04:42:00,64.6,55.4,29.77,NNW,337,2.0,2.0,72,0.00,,,0.00,WeatherTracker,2013-02-27 09:42:00,
2013-02-27 04:44:00,64.6,55.4,29.77,NNW,337,1.0,0.0,72,0.00,,,0.00,WeatherTracker,2013-02-27 09:44:00,
2013-02-27 04:46:00,64.6,55.4,29.77,NNW,337,0.0,0.0,72,0.00,,,0.00,WeatherTracker,2013-02-27 09:46:00,
2013-02-27 04:47:00,64.6,55.4,29.77,NW,315,0.0,1.0,72,0.00,,,0.00,WeatherTracker,2013-02-27 09:47:00,
2013-02-27 04:49:00,64.6,55.4,29.77,NNW,337,0.0,0.0,72,0.00,,,0.00,WeatherTracker,2013-02-27 09:49:00,
2013-02-27 04:51:00,64.4,55.4,29.77,NNW,337,0.0,1.0,72,0.00,,,0.00,WeatherTracker,2013-02-27 09:51:00,
2013-02-27 04:52:00,64.4,55.4,29.77,NNW,337,0.0,0.0,72,0.00,,,0.00,WeatherTracker,2013-02-27 09:52:00,
2013-02-27 04:54:00,64.4,55.4,29.77,NW,315,0.0,0.0,72,0.00,,,0.00,WeatherTracker,2013-02-27 09:54:00,
2013-02-27 04:57:00,64.4,55.4,29.77,North,0,0.0,0.0,72,0.00,,,0.00,WeatherTracker,2013-02-27 09:57:00,
2013-02-27 04:59:00,64.4,55.4,29.77,NNW,337,0.0,0.0,72,0.00,,,0.00,WeatherTracker,2013-02-27 09:59:00,
2013-02-27 05:02:00,64.4,55.4,29.77,NNW,337,0.0,0.0,72,0.00,,,0.00,WeatherTracker,2013-02-27 10:02:00,
2013-02-27 05:03:00,64.4,55.4,29.77,NNW,337,0.0,0.0,72,0.00,,,0.00,WeatherTracker,2013-02-27 10:03:00,
2013-02-27 05:04:00,64.2,55.4,29.77,North,0,0.0,0.0,72,0.00,,,0.00,WeatherTracker,2013-02-27 10:04:00,
2013-02-27 05:07:00,64.2,55.4,29.77,NW,315,0.0,1.0,73,0.00,,,0.00,WeatherTracker,2013-02-27 10:07:00,
2013-02-27 05:08:00,64.2,55.4,29.77,NNW,337,0.0,0.0,73,0.00,,,0.00,WeatherTracker,2013-02-27 10:08:00,
2013-02-27 05:09:00,64.2,55.4,29.77,NNW,337,0.0,0.0,73,0.00,,,0.00,WeatherTracker,2013-02-27 10:09:00,
2013-02-27 05:12:00,64.2,55.4,29.77,NNW,337,0.0,0.0,73,0.00,,,0.00,WeatherTracker,2013-02-27 10:12:00,
2013-02-27 05:13:00,64.2,55.4,29.77,North,0,0.0,3.0,73,0.00,,,0.00,WeatherTracker,2013-02-27 10:13:00,
2013-02-27 05:14:00,64.2,55.4,29.77,NNW,337,2.0,2.0,73,0.00,,,0.00,WeatherTracker,2013-02-27 10:14:00,
2013-02-27 05:17:00,64.2,55.4,29.77,NNW,337,2.0,2.0,73,0.00,,,0.00,WeatherTracker,2013-02-27 10:17:00,
2013-02-27 05:18:00,64.2,55.4,29.77,NNW,337,2.0,0.0,73,0.00,,,0.00,WeatherTracker,2013-02-27 10:18:00,
2013-02-27 05:19:00,64.2,55.4,29.77,WNW,292,1.0,2.0,73,0.00,,,0.00,WeatherTracker,2013-02-27 10:19:00,
2013-02-27 05:23:00,64.2,55.4,29.77,NW,315,0.0,2.0,73,0.00,,,0.00,WeatherTracker,2013-02-27 10:23:00,
2013-02-27 05:24:00,64.2,55.4,29.77,NNW,337,2.0,2.0,73,0.00,,,0.00,WeatherTracker,2013-02-27 10:24:00,
2013-02-27 05:28:00,64.2,55.4,29.80,NNW,337,2.0,2.0,73,0.00,,,0.00,WeatherTracker,2013-02-27 10:28:00,
2013-02-27 05:29:00,64.2,55.4,29.80,North,0,2.0,2.0,73,0.00,,,0.00,WeatherTracker,2013-02-27 10:29:00,
2013-02-27 05:30:00,64.2,55.4,29.80,NNW,337,2.0,2.0,73,0.00,,,0.00,WeatherTracker,2013-02-27 10:30:00,
2013-02-27 05:34:00,64.2,55.4,29.80,NNW,337,2.0,0.0,73,0.00,,,0.00,WeatherTracker,2013-02-27 10:34:00,
2013-02-27 05:35:00,64.2,55.4,29.80,NNW,337,1.0,1.0,73,0.00,,,0.00,WeatherTracker,2013-02-27 10:35:00,
2013-02-27 05:39:00,64.2,55.4,29.77,NW,315,1.0,2.0,73,0.00,,,0.00,WeatherTracker,2013-02-27 10:39:00,
2013-02-27 05:40:00,64.2,55.4,29.77,NW,315,1.0,0.0,73,0.00,,,0.00,WeatherTracker,2013-02-27 10:40:00,
2013-02-27 05:44:00,64.2,55.4,29.77,NNW,337,1.0,0.0,73,0.00,,,0.00,WeatherTracker,2013-02-27 10:44:00,
2013-02-27 05:45:00,64.2,55.4,29.77,NNW,337,1.0,0.0,73,0.00,,,0.00,WeatherTracker,2013-02-27 10:45:00,
2013-02-27 05:50:00,64.0,55.4,29.77,WNW,292,1.0,1.0,73,0.00,,,0.00,WeatherTracker,2013-02-27 10:50:00,
2013-02-27 05:51:00,64.0,55.4,29.77,WNW,292,1.0,1.0,73,0.00,,,0.00,WeatherTracker,2013-02-27 10:51:00,
2013-02-27 05:55:00,63.9,55.4,29.80,WNW,292,0.0,0.0,73,0.00,,,0.00,WeatherTracker,2013-02-27 10:55:00,
2013-02-27 05:56:00,63.9,55.4,29.80,WNW,292,0.0,0.0,73,0.00,,,0.00,WeatherTracker,2013-02-27 10:56:00,
2013-02-27 06:00:00,63.7,55.4,29.80,WNW,292,0.0,0.0,73,0.00,,,0.00,WeatherTracker,2013-02-27 11:00:00,
2013-02-27 06:01:00,63.7,55.4,29.80,WNW,292,0.0,0.0,73,0.00,,,0.00,WeatherTracker,2013-02-27 11:01:00,
2013-02-27 06:03:00,63.7,55.4,29.80,WNW,292,0.0,0.0,73,0.00,,,0.00,WeatherTracker,2013-02-27 11:03:00,
2013-02-27 06:05:00,63.5,55.4,29.80,WNW,292,0.0,0.0,73,0.00,,,0.00,WeatherTracker,2013-02-27 11:05:00,
2013-02-27 06:06:00,63.3,55.4,29.80,WNW,292,0.0,0.0,73,0.00,,,0.00,WeatherTracker,2013-02-27 11:06:00,
2013-02-27 06:08:00,63.3,55.4,29.80,WNW,292,0.0,0.0,73,0.00,,,0.00,WeatherTracker,2013-02-27 11:08:00,
2013-02-27 06:10:00,63.1,55.4,29.80,NNW,337,0.0,0.0,73,0.00,,,0.00,WeatherTracker,2013-02-27 11:10:00,
2013-02-27 06:11:00,63.1,55.4,29.80,NNW,337,0.0,0.0,73,0.00,,,0.00,WeatherTracker,2013-02-27 11:11:00,
2013-02-27 06:13:00,63.1,55.4,29.80,WNW,292,0.0,1.0,73,0.00,,,0.00,WeatherTracker,2013-02-27 11:13:00,
2013-02-27 06:16:00,63.0,55.4,29.80,North,0,1.0,0.0,73,0.00,,,0.00,WeatherTracker,2013-02-27 11:16:00,
2013-02-27 06:18:00,63.0,55.4,29.80,NNW,337,0.0,0.0,73,0.00,,,0.00,WeatherTracker,2013-02-27 11:18:00,
2013-02-27 06:21:00,63.0,55.4,29.80,NNW,337,0.0,0.0,74,0.00,,,0.00,WeatherTracker,2013-02-27 11:21:00,
2013-02-27 06:23:00,63.0,55.4,29.80,WNW,292,0.0,0.0,74,0.00,,,0.00,WeatherTracker,2013-02-27 11:23:00,
2013-02-27 06:26:00,62.8,55.4,29.80,NNW,337,1.0,0.0,74,0.00,,,0.00,WeatherTracker,2013-02-27 11:26:00,
2013-02-27 06:27:00,62.8,55.4,29.80,NNW,337,0.0,0.0,74,0.00,,,0.00,WeatherTracker,2013-02-27 11:27:00,
2013-02-27 06:28:00,62.8,55.4,29.80,NNW,337,0.0,0.0,74,0.00,,,0.00,WeatherTracker,2013-02-27 11:28:00,
2013-02-27 06:31:00,62.6,55.4,29.80,NW,315,1.0,0.0,74,0.00,,,0.00,WeatherTracker,2013-02-27 11:31:00,
2013-02-27 06:32:00,62.6,55.4,29.80,NW,315,1.0,0.0,74,0.00,,,0.00,WeatherTracker,2013-02-27 11:32:00,
2013-02-27 06:33:00,62.6,55.4,29.80,NNW,337,0.0,0.0,74,0.00,,,0.00,WeatherTracker,2013-02-27 11:33:00,
2013-02-27 06:37:00,62.6,55.4,29.80,NNW,337,2.0,2.0,74,0.00,,,0.00,WeatherTracker,2013-02-27 11:37:00,
2013-02-27 06:38:00,62.6,55.4,29.80,NNW,337,1.0,0.0,74,0.00,,,0.00,WeatherTracker,2013-02-27 11:38:00,
2013-02-27 06:42:00,62.4,55.4,29.80,NNW,337,0.0,0.0,75,0.00,,,0.00,WeatherTracker,2013-02-27 11:42:00,
2013-02-27 06:43:00,62.2,55.4,29.80,NNW,337,0.0,0.0,75,0.00,,,0.00,WeatherTracker,2013-02-27 11:43:00,
2013-02-27 06:47:00,62.1,55.4,29.80,North,0,0.0,0.0,75,0.00,,,0.00,WeatherTracker,2013-02-27 11:47:00,
2013-02-27 06:48:00,62.1,55.4,29.80,North,0,0.0,0.0,75,0.00,,,0.00,WeatherTracker,2013-02-27 11:48:00,
2013-02-27 06:52:00,61.9,55.4,29.80,NW,315,0.0,0.0,75,0.00,,,0.00,WeatherTracker,2013-02-27 11:52:00,
2013-02-27 06:53:00,61.9,55.4,29.80,NW,315,0.0,0.0,75,0.00,,,0.00,WeatherTracker,2013-02-27 11:53:00,
2013-02-27 06:58:00,61.7,55.4,29.80,WNW,292,0.0,0.0,75,0.00,,,0.00,WeatherTracker,2013-02-27 11:58:00,
2013-02-27 07:03:00,61.5,53.6,29.80,NW,315,0.0,0.0,76,0.00,,,0.00,WeatherTracker,2013-02-27 12:03:00,
2013-02-27 07:04:00,61.5,53.6,29.80,NNE,22,0.0,0.0,76,0.00,,,0.00,WeatherTracker,2013-02-27 12:04:00,
2013-02-27 07:08:00,61.3,53.6,29.80,North,0,1.0,2.0,76,0.00,,,0.00,WeatherTracker,2013-02-27 12:08:00,
2013-02-27 07:09:00,61.3,53.6,29.80,North,0,2.0,2.0,76,0.00,,,0.00,WeatherTracker,2013-02-27 12:09:00,
2013-02-27 07:13:00,61.3,55.4,29.80,NNW,337,0.0,0.0,77,0.00,,,0.00,WeatherTracker,2013-02-27 12:13:00,
2013-02-27 07:14:00,61.3,55.4,29.80,NNW,337,0.0,0.0,77,0.00,,,0.00,WeatherTracker,2013-02-27 12:14:00,
2013-02-27 07:18:00,61.3,55.4,29.80,WNW,292,1.0,1.0,77,0.00,,,0.00,WeatherTracker,2013-02-27 12:18:00,
2013-02-27 07:19:00,61.3,55.4,29.80,WNW,292,1.0,1.0,77,0.00,,,0.00,WeatherTracker,2013-02-27 12:19:00,
2013-02-27 07:23:00,61.0,53.6,29.80,SSE,157,0.0,0.0,77,0.00,,,0.00,WeatherTracker,2013-02-27 12:23:00,
2013-02-27 07:24:00,61.0,53.6,29.80,SSE,157,0.0,0.0,77,0.00,,,0.00,WeatherTracker,2013-02-27 12:24:00,
2013-02-27 07:29:00,60.8,53.6,29.80,NNW,337,0.0,0.0,77,0.00,,,0.00,WeatherTracker,2013-02-27 12:29:00,
2013-02-27 07:34:00,61.0,55.4,29.80,NNW,337,2.0,2.0,79,0.00,,,0.00,WeatherTracker,2013-02-27 12:34:00,
2013-02-27 07:35:00,61.2,55.4,29.80,North,0,2.0,3.0,80,0.00,,,0.00,WeatherTracker,2013-02-27 12:35:00,
2013-02-27 07:39:00,61.5,55.4,29.80,NNE,22,2.0,2.0,80,0.00,,,0.00,WeatherTracker,2013-02-27 12:39:00,
2013-02-27 07:40:00,61.7,55.4,29.80,North,0,2.0,2.0,80,0.00,,,0.00,WeatherTracker,2013-02-27 12:40:00,
2013-02-27 07:44:00,61.7,55.4,29.80,NNW,337,1.0,1.0,79,0.00,,,0.00,WeatherTracker,2013-02-27 12:44:00,
2013-02-27 07:45:00,61.7,55.4,29.80,NNW,337,1.0,1.0,79,0.00,,,0.00,WeatherTracker,2013-02-27 12:45:00,
2013-02-27 07:49:00,62.1,55.4,29.80,NNW,337,2.0,2.0,79,0.00,,,0.00,WeatherTracker,2013-02-27 12:49:00,
2013-02-27 07:50:00,62.1,55.4,29.80,NNE,22,2.0,2.0,79,0.00,,,0.00,WeatherTracker,2013-02-27 12:50:00,
2013-02-27 07:54:00,62.4,55.4,29.83,NNW,337,3.0,3.0,79,0.00,,,0.00,WeatherTracker,2013-02-27 12:54:00,
2013-02-27 07:55:00,62.6,55.4,29.83,NNW,337,3.0,3.0,78,0.00,,,0.00,WeatherTracker,2013-02-27 12:55:00,
2013-02-27 07:56:00,62.6,55.4,29.83,NNE,22,2.0,2.0,78,0.00,,,0.00,WeatherTracker,2013-02-27 12:56:00,
2013-02-27 08:00:00,63.0,55.4,29.83,NNW,337,2.0,2.0,78,0.00,,,0.00,WeatherTracker,2013-02-27 13:00:00,
2013-02-27 08:01:00,63.1,55.4,29.83,NNW,337,2.0,4.0,78,0.00,,,0.00,WeatherTracker,2013-02-27 13:01:00,
2013-02-27 08:05:00,63.5,57.2,29.83,NW,315,3.0,3.0,77,0.00,,,0.00,WeatherTracker,2013-02-27 13:05:00,
2013-02-27 08:06:00,63.7,57.2,29.83,NNW,337,3.0,3.0,77,0.00,,,0.00,WeatherTracker,2013-02-27 13:06:00,
2013-02-27 08:10:00,63.9,55.4,29.83,NNE,22,2.0,2.0,76,0.00,,,0.00,WeatherTracker,2013-02-27 13:10:00,
2013-02-27 08:11:00,64.0,55.4,29.83,North,0,1.0,3.0,75,0.00,,,0.00,WeatherTracker,2013-02-27 13:11:00,
2013-02-27 08:16:00,64.4,55.4,29.83,NNW,337,5.0,5.0,73,0.00,,,0.00,WeatherTracker,2013-02-27 13:16:00,
2013-02-27 08:17:00,64.4,55.4,29.83,NW,315,4.0,4.0,72,0.00,,,0.00,WeatherTracker,2013-02-27 13:17:00,
2013-02-27 08:21:00,64.8,55.4,29.83,NNE,22,4.0,4.0,71,0.00,,,0.00,WeatherTracker,2013-02-27 13:21:00,
2013-02-27 08:22:00,64.8,55.4,29.83,NNE,22,4.0,4.0,71,0.00,,,0.00,WeatherTracker,2013-02-27 13:22:00,
2013-02-27 08:26:00,64.9,55.4,29.83,NNW,337,4.0,5.0,69,0.00,,,0.00,WeatherTracker,2013-02-27 13:26:00,
2013-02-27 08:27:00,65.1,55.4,29.83,NNW,337,4.0,5.0,69,0.00,,,0.00,WeatherTracker,2013-02-27 13:27:00,
2013-02-27 08:31:00,65.3,55.4,29.83,NNE,22,5.0,5.0,68,0.00,,,0.00,WeatherTracker,2013-02-27 13:31:00,
2013-02-27 08:32:00,65.1,53.6,29.83,NW,315,5.0,5.0,67,0.00,,,0.00,WeatherTracker,2013-02-27 13:32:00,
2013-02-27 08:37:00,65.5,55.4,29.83,NNE,22,3.0,5.0,67,0.00,,,0.00,WeatherTracker,2013-02-27 13:37:00,
2013-02-27 08:42:00,65.5,53.6,29.83,NNW,337,4.0,6.0,66,0.00,,,0.00,WeatherTracker,2013-02-27 13:42:00,
2013-02-27 08:43:00,65.7,53.6,29.83,ENE,67,4.0,5.0,66,0.00,,,0.00,WeatherTracker,2013-02-27 13:43:00,
2013-02-27 08:47:00,65.7,53.6,29.83,NNW,337,4.0,5.0,65,0.00,,,0.00,WeatherTracker,2013-02-27 13:47:00,
2013-02-27 08:48:00,65.8,53.6,29.83,NE,45,4.0,4.0,65,0.00,,,0.00,WeatherTracker,2013-02-27 13:48:00,
2013-02-27 08:52:00,65.8,53.6,29.83,NNE,22,3.0,3.0,64,0.00,,,0.00,WeatherTracker,2013-02-27 13:52:00,
2013-02-27 08:53:00,65.8,53.6,29.83,North,0,3.0,6.0,64,0.00,,,0.00,WeatherTracker,2013-02-27 13:53:00,
2013-02-27 08:58:00,65.8,53.6,29.85,NNW,337,3.0,3.0,64,0.00,,,0.00,WeatherTracker,2013-02-27 13:58:00,
2013-02-27 09:03:00,65.7,51.8,29.85,NNE,22,4.0,4.0,62,0.00,,,0.00,WeatherTracker,2013-02-27 14:03:00,
2013-02-27 09:08:00,65.8,51.8,29.85,NNW,337,4.0,4.0,62,0.00,,,0.00,WeatherTracker,2013-02-27 14:08:00,
2013-02-27 09:13:00,65.8,51.8,29.85,NNW,337,7.0,7.0,61,0.00,,,0.00,WeatherTracker,2013-02-27 14:13:00,
2013-02-27 09:14:00,65.7,51.8,29.85,North,0,7.0,7.0,60,0.00,,,0.00,WeatherTracker,2013-02-27 14:14:00,
2013-02-27 09:18:00,65.8,51.8,29.85,North,0,5.0,5.0,62,0.00,,,0.00,WeatherTracker,2013-02-27 14:18:00,
2013-02-27 09:19:00,65.8,51.8,29.85,NNE,22,5.0,5.0,62,0.00,,,0.00,WeatherTracker,2013-02-27 14:19:00,
2013-02-27 09:23:00,65.8,51.8,29.85,NNW,337,4.0,4.0,62,0.00,,,0.00,WeatherTracker,2013-02-27 14:23:00,
2013-02-27 09:24:00,66.0,53.6,29.85,NNE,22,4.0,5.0,62,0.00,,,0.00,WeatherTracker,2013-02-27 14:24:00,
2013-02-27 09:29:00,66.2,51.8,29.85,North,0,4.0,4.0,60,0.00,,,0.00,WeatherTracker,2013-02-27 14:29:00,
2013-02-27 09:30:00,66.2,51.8,29.85,NNW,337,4.0,4.0,61,0.00,,,0.00,WeatherTracker,2013-02-27 14:30:00,
2013-02-27 09:34:00,66.2,51.8,29.85,NNE,22,3.0,6.0,60,0.00,,,0.00,WeatherTracker,2013-02-27 14:34:00,
2013-02-27 09:35:00,66.2,51.8,29.85,NNE,22,4.0,7.0,60,0.00,,,0.00,WeatherTracker,2013-02-27 14:35:00,
2013-02-27 09:39:00,66.4,51.8,29.85,North,0,3.0,3.0,60,0.00,,,0.00,WeatherTracker,2013-02-27 14:39:00,
2013-02-27 09:40:00,66.6,53.6,29.88,North,0,4.0,4.0,61,0.00,,,0.00,WeatherTracker,2013-02-27 14:40:00,
2013-02-27 09:44:00,66.7,51.8,29.88,North,0,4.0,7.0,59,0.00,,,0.00,WeatherTracker,2013-02-27 14:44:00,
2013-02-27 09:45:00,66.7,51.8,29.88,North,0,4.0,9.0,59,0.00,,,0.00,WeatherTracker,2013-02-27 14:45:00,
2013-02-27 09:50:00,66.7,50.0,29.88,NNW,337,7.0,7.0,56,0.00,,,0.00,WeatherTracker,2013-02-27 14:50:00,
2013-02-27 09:51:00,66.9,51.8,29.88,North,0,3.0,3.0,58,0.00,,,0.00,WeatherTracker,2013-02-27 14:51:00,
2013-02-27 09:55:00,67.3,51.8,29.85,NNE,22,4.0,4.0,58,0.00,,,0.00,WeatherTracker,2013-02-27 14:55:00,
2013-02-27 09:56:00,67.3,51.8,29.85,NNE,22,2.0,5.0,58,0.00,,,0.00,WeatherTracker,2013-02-27 14:56:00,
2013-02-27 10:00:00,67.3,51.8,29.85,NNW,337,5.0,9.0,56,0.00,,,0.00,WeatherTracker,2013-02-27 15:00:00,
2013-02-27 10:01:00,67.3,51.8,29.85,North,0,5.0,6.0,56,0.00,,,0.00,WeatherTracker,2013-02-27 15:01:00,
2013-02-27 10:05:00,67.1,50.0,29.85,NNW,337,6.0,6.0,55,0.00,,,0.00,WeatherTracker,2013-02-27 15:05:00,
2013-02-27 10:06:00,67.1,50.0,29.85,NNE,22,6.0,6.0,55,0.00,,,0.00,WeatherTracker,2013-02-27 15:06:00,
2013-02-27 10:11:00,67.3,50.0,29.85,North,0,4.0,4.0,55,0.00,,,0.00,WeatherTracker,2013-02-27 15:11:00,
2013-02-27 10:12:00,67.6,50.0,29.85,NNW,337,4.0,5.0,55,0.00,,,0.00,WeatherTracker,2013-02-27 15:12:00,
2013-02-27 10:16:00,67.8,51.8,29.85,North,0,3.0,3.0,55,0.00,,,0.00,WeatherTracker,2013-02-27 15:16:00,
2013-02-27 10:17:00,67.8,51.8,29.85,NNE,22,4.0,5.0,55,0.00,,,0.00,WeatherTracker,2013-02-27 15:17:00,
2013-02-27 10:21:00,67.6,50.0,29.85,NNE,22,6.0,9.0,52,0.00,,,0.00,WeatherTracker,2013-02-27 15:21:00,
2013-02-27 10:22:00,67.6,50.0,29.85,NNE,22,6.0,6.0,52,0.00,,,0.00,WeatherTracker,2013-02-27 15:22:00,
2013-02-27 10:26:00,67.6,50.0,29.85,NW,315,3.0,3.0,52,0.00,,,0.00,WeatherTracker,2013-02-27 15:26:00,
2013-02-27 10:27:00,67.8,50.0,29.85,NNW,337,3.0,4.0,53,0.00,,,0.00,WeatherTracker,2013-02-27 15:27:00,
2013-02-27 10:28:00,68.0,50.0,29.85,WNW,292,4.0,4.0,52,0.00,,,0.00,WeatherTracker,2013-02-27 15:28:00,
2013-02-27 10:31:00,68.2,50.0,29.85,NNE,22,4.0,4.0,51,0.00,,,0.00,WeatherTracker,2013-02-27 15:31:00,
2013-02-27 10:32:00,68.4,50.0,29.85,NNE,22,4.0,5.0,51,0.00,,,0.00,WeatherTracker,2013-02-27 15:32:00,
2013-02-27 10:33:00,68.4,50.0,29.85,NNE,22,5.0,5.0,51,0.00,,,0.00,WeatherTracker,2013-02-27 15:33:00,
2013-02-27 10:36:00,68.4,48.2,29.85,NNW,337,5.0,6.0,49,0.00,,,0.00,WeatherTracker,2013-02-27 15:36:00,
2013-02-27 10:37:00,68.5,50.0,29.85,NNW,337,4.0,5.0,51,0.00,,,0.00,WeatherTracker,2013-02-27 15:37:00,
2013-02-27 10:38:00,68.5,50.0,29.85,WNW,292,4.0,6.0,51,0.00,,,0.00,WeatherTracker,2013-02-27 15:38:00,
2013-02-27 10:42:00,68.2,48.2,29.85,NNW,337,6.0,6.0,49,0.00,,,0.00,WeatherTracker,2013-02-27 15:42:00,
2013-02-27 10:43:00,68.2,48.2,29.85,NNE,22,4.0,4.0,50,0.00,,,0.00,WeatherTracker,2013-02-27 15:43:00,
2013-02-27 10:44:00,68.4,50.0,29.85,NW,315,4.0,4.0,51,0.00,,,0.00,WeatherTracker,2013-02-27 15:44:00,
2013-02-27 10:47:00,68.9,51.8,29.85,WNW,292,5.0,5.0,52,0.00,,,0.00,WeatherTracker,2013-02-27 15:47:00,
2013-02-27 10:48:00,68.9,51.8,29.85,West,270,4.0,4.0,52,0.00,,,0.00,WeatherTracker,2013-02-27 15:48:00,
2013-02-27 10:49:00,69.1,51.8,29.85,NNW,337,3.0,3.0,52,0.00,,,0.00,WeatherTracker,2013-02-27 15:49:00,
2013-02-27 10:52:00,69.3,48.2,29.85,WNW,292,5.0,5.0,48,0.00,,,0.00,WeatherTracker,2013-02-27 15:52:00,
2013-02-27 10:53:00,69.3,48.2,29.85,WNW,292,4.0,5.0,48,0.00,,,0.00,WeatherTracker,2013-02-27 15:53:00,
2013-02-27 10:54:00,69.6,50.0,29.85,West,270,4.0,4.0,50,0.00,,,0.00,WeatherTracker,2013-02-27 15:54:00,
2013-02-27 10:57:00,69.8,50.0,29.85,NNW,337,5.0,7.0,48,0.00,,,0.00,WeatherTracker,2013-02-27 15:57:00,
2013-02-27 10:58:00,69.8,50.0,29.85,NNW,337,7.0,8.0,48,0.00,,,0.00,WeatherTracker,2013-02-27 15:58:00,
2013-02-27 11:00:00,69.6,48.2,29.85,NNW,337,5.0,5.0,47,0.00,,,0.00,WeatherTracker,2013-02-27 16:00:00,
2013-02-27 11:02:00,69.4,48.2,29.85,NNW,337,5.0,6.0,45,0.00,,,0.00,WeatherTracker,2013-02-27 16:02:00,
2013-02-27 11:03:00,69.4,48.2,29.85,North,0,5.0,5.0,46,0.00,,,0.00,WeatherTracker,2013-02-27 16:03:00,
2013-02-27 11:05:00,69.6,48.2,29.85,NNE,22,4.0,4.0,47,0.00,,,0.00,WeatherTracker,2013-02-27 16:05:00,
2013-02-27 11:06:00,69.6,48.2,29.85,NNE,22,4.0,5.0,46,0.00,,,0.00,WeatherTracker,2013-02-27 16:06:00,
2013-02-27 11:08:00,70.0,48.2,29.85,North,0,4.0,6.0,46,0.00,,,0.00,WeatherTracker,2013-02-27 16:08:00,
2013-02-27 11:10:00,69.8,48.2,29.85,SW,225,4.0,4.0,45,0.00,,,0.00,WeatherTracker,2013-02-27 16:10:00,
2013-02-27 11:11:00,70.0,48.2,29.85,NNW,337,4.0,4.0,45,0.00,,,0.00,WeatherTracker,2013-02-27 16:11:00,
2013-02-27 11:13:00,70.0,48.2,29.85,NNW,337,6.0,7.0,44,0.00,,,0.00,WeatherTracker,2013-02-27 16:13:00,
2013-02-27 11:15:00,69.8,48.2,29.85,NNE,22,5.0,6.0,45,0.00,,,0.00,WeatherTracker,2013-02-27 16:15:00,
2013-02-27 11:16:00,69.6,48.2,29.85,NNW,337,5.0,5.0,45,0.00,,,0.00,WeatherTracker,2013-02-27 16:16:00,
2013-02-27 11:18:00,69.6,48.2,29.85,North,0,6.0,6.0,45,0.00,,,0.00,WeatherTracker,2013-02-27 16:18:00,
2013-02-27 11:20:00,69.8,48.2,29.85,NNW,337,4.0,4.0,45,0.00,,,0.00,WeatherTracker,2013-02-27 16:20:00,
2013-02-27 11:21:00,69.8,48.2,29.85,NNW,337,4.0,4.0,45,0.00,,,0.00,WeatherTracker,2013-02-27 16:21:00,
2013-02-27 11:23:00,70.0,48.2,29.85,WNW,292,2.0,3.0,45,0.00,,,0.00,WeatherTracker,2013-02-27 16:23:00,
2013-02-27 11:26:00,70.0,46.4,29.85,NNW,337,6.0,6.0,43,0.00,,,0.00,WeatherTracker,2013-02-27 16:26:00,
2013-02-27 11:28:00,69.4,46.4,29.85,NNW,337,6.0,9.0,44,0.00,,,0.00,WeatherTracker,2013-02-27 16:28:00,
2013-02-27 11:29:00,69.4,46.4,29.85,NW,315,6.0,7.0,44,0.00,,,0.00,WeatherTracker,2013-02-27 16:29:00,
2013-02-27 11:31:00,69.8,48.2,29.85,NNW,337,4.0,5.0,44,0.00,,,0.00,WeatherTracker,2013-02-27 16:31:00,
2013-02-27 11:33:00,70.0,48.2,29.85,North,0,4.0,6.0,45,0.00,,,0.00,WeatherTracker,2013-02-27 16:33:00,
2013-02-27 11:34:00,70.0,48.2,29.85,North,0,4.0,6.0,44,0.00,,,0.00,WeatherTracker,2013-02-27 16:34:00,
2013-02-27 11:36:00,69.8,48.2,29.85,WNW,292,7.0,7.0,44,0.00,,,0.00,WeatherTracker,2013-02-27 16:36:00,
2013-02-27 11:38:00,69.4,48.2,29.85,NNW,337,5.0,5.0,45,0.00,,,0.00,WeatherTracker,2013-02-27 16:38:00,
2013-02-27 11:39:00,69.4,48.2,29.85,NNW,337,5.0,5.0,45,0.00,,,0.00,WeatherTracker,2013-02-27 16:39:00,
2013-02-27 11:41:00,69.3,48.2,29.85,NNW,337,5.0,5.0,45,0.00,,,0.00,WeatherTracker,2013-02-27 16:41:00,
2013-02-27 11:42:00,69.1,48.2,29.85,NNW,337,5.0,5.0,45,0.00,,,0.00,WeatherTracker,2013-02-27 16:42:00,
2013-02-27 11:43:00,69.3,48.2,29.85,North,0,6.0,6.0,45,0.00,,,0.00,WeatherTracker,2013-02-27 16:43:00,
2013-02-27 11:44:00,69.3,48.2,29.85,North,0,6.0,6.0,45,0.00,,,0.00,WeatherTracker,2013-02-27 16:44:00,
2013-02-27 11:46:00,69.6,48.2,29.85,WSW,247,5.0,6.0,45,0.00,,,0.00,WeatherTracker,2013-02-27 16:46:00,
2013-02-27 11:47:00,69.6,48.2,29.85,SSW,202,5.0,5.0,45,0.00,,,0.00,WeatherTracker,2013-02-27 16:47:00,
2013-02-27 11:49:00,70.0,48.2,29.85,South,180,2.0,2.0,45,0.00,,,0.00,WeatherTracker,2013-02-27 16:49:00,
2013-02-27 11:51:00,69.8,46.4,29.85,NNW,337,4.0,6.0,43,0.00,,,0.00,WeatherTracker,2013-02-27 16:51:00,
2013-02-27 11:53:00,70.0,48.2,29.85,East,90,5.0,5.0,44,0.00,,,0.00,WeatherTracker,2013-02-27 16:53:00,
2013-02-27 11:54:00,70.0,46.4,29.85,WNW,292,4.0,5.0,43,0.00,,,0.00,WeatherTracker,2013-02-27 16:54:00,
2013-02-27 11:56:00,70.2,46.4,29.85,NE,45,4.0,4.0,43,0.00,,,0.00,WeatherTracker,2013-02-27 16:56:00,
2013-02-27 11:58:00,70.3,48.2,29.85,North,0,2.0,3.0,44,0.00,,,0.00,WeatherTracker,2013-02-27 16:58:00,
2013-02-27 11:59:00,70.3,48.2,29.85,NNW,337,3.0,3.0,44,0.00,,,0.00,WeatherTracker,2013-02-27 16:59:00,
2013-02-27 12:01:00,70.2,46.4,29.85,NNW,337,4.0,4.0,42,0.00,,,0.00,WeatherTracker,2013-02-27 17:01:00,
2013-02-27 12:03:00,70.5,46.4,29.85,NNW,337,6.0,8.0,43,0.00,,,0.00,WeatherTracker,2013-02-27 17:03:00,
2013-02-27 12:04:00,70.5,46.4,29.85,NW,315,6.0,6.0,43,0.00,,,0.00,WeatherTracker,2013-02-27 17:04:00,
2013-02-27 12:06:00,70.5,46.4,29.85,NNE,22,5.0,5.0,43,0.00,,,0.00,WeatherTracker,2013-02-27 17:06:00,
2013-02-27 12:08:00,70.9,48.2,29.85,ENE,67,3.0,3.0,44,0.00,,,0.00,WeatherTracker,2013-02-27 17:08:00,
2013-02-27 12:09:00,70.9,48.2,29.85,NNW,337,3.0,3.0,44,0.00,,,0.00,WeatherTracker,2013-02-27 17:09:00,
2013-02-27 12:11:00,71.1,48.2,29.85,NNE,22,3.0,3.0,44,0.00,,,0.00,WeatherTracker,2013-02-27 17:11:00,
2013-02-27 12:13:00,71.2,48.2,29.85,NNW,337,5.0,5.0,44,0.00,,,0.00,WeatherTracker,2013-02-27 17:13:00,
2013-02-27 12:14:00,71.2,48.2,29.85,WNW,292,5.0,5.0,44,0.00,,,0.00,WeatherTracker,2013-02-27 17:14:00,
2013-02-27 12:15:00,71.2,48.2,29.85,NW,315,4.0,4.0,44,0.00,,,0.00,WeatherTracker,2013-02-27 17:15:00,
2013-02-27 12:17:00,71.2,46.4,29.85,WNW,292,6.0,6.0,42,0.00,,,0.00,WeatherTracker,2013-02-27 17:17:00,
2013-02-27 12:19:00,71.1,46.4,29.85,WNW,292,4.0,6.0,40,0.00,,,0.00,WeatherTracker,2013-02-27 17:19:00,
2013-02-27 12:20:00,71.4,48.2,29.85,SSW,202,6.0,6.0,43,0.00,,,0.00,WeatherTracker,2013-02-27 17:20:00,
2013-02-27 12:22:00,71.4,48.2,29.85,WSW,247,5.0,5.0,42,0.00,,,0.00,WeatherTracker,2013-02-27 17:22:00,
2013-02-27 12:24:00,71.6,48.2,29.85,SW,225,4.0,6.0,42,0.00,,,0.00,WeatherTracker,2013-02-27 17:24:00,
2013-02-27 12:25:00,71.8,48.2,29.85,SSW,202,4.0,6.0,42,0.00,,,0.00,WeatherTracker,2013-02-27 17:25:00,
2013-02-27 12:27:00,72.0,48.2,29.85,SW,225,3.0,4.0,42,0.00,,,0.00,WeatherTracker,2013-02-27 17:27:00,
2013-02-27 12:29:00,72.1,48.2,29.85,WNW,292,2.0,6.0,41,0.00,,,0.00,WeatherTracker,2013-02-27 17:29:00,
2013-02-27 12:30:00,72.1,48.2,29.85,WNW,292,3.0,9.0,42,0.00,,,0.00,WeatherTracker,2013-02-27 17:30:00,
2013-02-27 12:32:00,72.5,48.2,29.85,NNW,337,4.0,4.0,42,0.00,,,0.00,WeatherTracker,2013-02-27 17:32:00,
2013-02-27 12:35:00,72.7,48.2,29.85,SSW,202,4.0,4.0,42,0.00,,,0.00,WeatherTracker,2013-02-27 17:35:00,
2013-02-27 12:37:00,72.9,48.2,29.85,NNW,337,2.0,2.0,42,0.00,,,0.00,WeatherTracker,2013-02-27 17:37:00,
2013-02-27 12:40:00,72.9,48.2,29.83,NW,315,4.0,6.0,41,0.00,,,0.00,WeatherTracker,2013-02-27 17:40:00,
2013-02-27 12:42:00,72.9,48.2,29.83,SSW,202,4.0,4.0,42,0.00,,,0.00,WeatherTracker,2013-02-27 17:42:00,
2013-02-27 12:45:00,73.0,48.2,29.83,WNW,292,3.0,5.0,41,0.00,,,0.00,WeatherTracker,2013-02-27 17:45:00,
2013-02-27 12:46:00,73.0,48.2,29.83,WSW,247,4.0,5.0,41,0.00,,,0.00,WeatherTracker,2013-02-27 17:46:00,
2013-02-27 12:47:00,72.5,46.4,29.83,WNW,292,4.0,6.0,38,0.00,,,0.00,WeatherTracker,2013-02-27 17:47:00,
2013-02-27 12:50:00,73.0,48.2,29.83,SW,225,3.0,3.0,40,0.00,,,0.00,WeatherTracker,2013-02-27 17:50:00,
2013-02-27 12:51:00,73.0,48.2,29.83,WSW,247,3.0,4.0,40,0.00,,,0.00,WeatherTracker,2013-02-27 17:51:00,
2013-02-27 12:52:00,73.0,48.2,29.83,NNW,337,5.0,5.0,40,0.00,,,0.00,WeatherTracker,2013-02-27 17:52:00,
2013-02-27 12:55:00,73.2,48.2,29.83,WNW,292,3.0,5.0,41,0.00,,,0.00,WeatherTracker,2013-02-27 17:55:00,
2013-02-27 12:56:00,73.2,48.2,29.83,WSW,247,4.0,4.0,41,0.00,,,0.00,WeatherTracker,2013-02-27 17:56:00,
2013-02-27 12:57:00,73.2,48.2,29.83,West,270,4.0,4.0,40,0.00,,,0.00,WeatherTracker,2013-02-27 17:57:00,
2013-02-27 13:00:00,73.4,48.2,29.83,WNW,292,4.0,4.0,39,0.00,,,0.00,WeatherTracker,2013-02-27 18:00:00,
2013-02-27 13:01:00,73.4,46.4,29.83,NNW,337,4.0,4.0,38,0.00,,,0.00,WeatherTracker,2013-02-27 18:01:00,
2013-02-27 13:02:00,73.0,44.6,29.83,WSW,247,5.0,5.0,37,0.00,,,0.00,WeatherTracker,2013-02-27 18:02:00,
2013-02-27 13:05:00,73.4,48.2,29.83,WSW,247,4.0,5.0,39,0.00,,,0.00,WeatherTracker,2013-02-27 18:05:00,
2013-02-27 13:06:00,73.4,48.2,29.83,WNW,292,6.0,9.0,39,0.00,,,0.00,WeatherTracker,2013-02-27 18:06:00,
2013-02-27 13:08:00,73.6,48.2,29.83,WNW,292,6.0,6.0,40,0.00,,,0.00,WeatherTracker,2013-02-27 18:08:00,
2013-02-27 13:10:00,73.6,46.4,29.83,NNW,337,3.0,3.0,38,0.00,,,0.00,WeatherTracker,2013-02-27 18:10:00,
2013-02-27 13:11:00,73.6,46.4,29.83,SSW,202,3.0,4.0,38,0.00,,,0.00,WeatherTracker,2013-02-27 18:11:00,
2013-02-27 13:12:00,73.4,46.4,29.83,ENE,67,4.0,4.0,38,0.00,,,0.00,WeatherTracker,2013-02-27 18:12:00,
2013-02-27 13:13:00,73.4,46.4,29.83,SSE,157,2.0,2.0,38,0.00,,,0.00,WeatherTracker,2013-02-27 18:13:00,
2013-02-27 13:15:00,73.8,48.2,29.83,NNE,22,2.0,3.0,40,0.00,,,0.00,WeatherTracker,2013-02-27 18:15:00,
2013-02-27 13:16:00,73.8,46.4,29.83,NNW,337,3.0,6.0,38,0.00,,,0.00,WeatherTracker,2013-02-27 18:16:00,
2013-02-27 13:17:00,73.6,46.4,29.83,NNE,22,6.0,9.0,37,0.00,,,0.00,WeatherTracker,2013-02-27 18:17:00,
2013-02-27 13:18:00,73.2,44.6,29.83,North,0,7.0,7.0,36,0.00,,,0.00,WeatherTracker,2013-02-27 18:18:00,
2013-02-27 13:20:00,73.6,46.4,29.83,NNE,22,3.0,3.0,37,0.00,,,0.00,WeatherTracker,2013-02-27 18:20:00,
2013-02-27 13:21:00,73.6,44.6,29.83,NW,315,3.0,3.0,36,0.00,,,0.00,WeatherTracker,2013-02-27 18:21:00,
2013-02-27 13:22:00,73.4,44.6,29.83,NW,315,3.0,3.0,36,0.00,,,0.00,WeatherTracker,2013-02-27 18:22:00,
2013-02-27 13:23:00,73.6,46.4,29.83,SSW,202,3.0,3.0,37,0.00,,,0.00,WeatherTracker,2013-02-27 18:23:00,
2013-02-27 13:25:00,73.8,46.4,29.83,WSW,247,5.0,6.0,38,0.00,,,0.00,WeatherTracker,2013-02-27 18:25:00,
2013-02-27 13:26:00,73.9,46.4,29.83,NNW,337,5.0,6.0,37,0.00,,,0.00,WeatherTracker,2013-02-27 18:26:00,
2013-02-27 13:27:00,73.9,46.4,29.83,NNW,337,6.0,6.0,36,0.00,,,0.00,WeatherTracker,2013-02-27 18:27:00,
2013-02-27 13:28:00,73.8,44.6,29.83,WNW,292,5.0,5.0,35,0.00,,,0.00,WeatherTracker,2013-02-27 18:28:00,
2013-02-27 13:30:00,73.9,46.4,29.83,West,270,5.0,5.0,37,0.00,,,0.00,WeatherTracker,2013-02-27 18:30:00,
2013-02-27 13:31:00,73.9,46.4,29.83,NNW,337,3.0,3.0,37,0.00,,,0.00,WeatherTracker,2013-02-27 18:31:00,
2013-02-27 13:32:00,73.9,46.4,29.83,NW,315,3.0,3.0,37,0.00,,,0.00,WeatherTracker,2013-02-27 18:32:00,
2013-02-27 13:33:00,73.9,46.4,29.83,NNE,22,3.0,4.0,37,0.00,,,0.00,WeatherTracker,2013-02-27 18:33:00,
2013-02-27 13:36:00,73.6,44.6,29.83,NNW,337,3.0,3.0,36,0.00,,,0.00,WeatherTracker,2013-02-27 18:36:00,
2013-02-27 13:38:00,73.8,46.4,29.83,North,0,3.0,4.0,37,0.00,,,0.00,WeatherTracker,2013-02-27 18:38:00,
2013-02-27 13:41:00,73.9,46.4,29.83,NW,315,5.0,5.0,37,0.00,,,0.00,WeatherTracker,2013-02-27 18:41:00,
2013-02-27 13:42:00,73.9,46.4,29.83,NNW,337,4.0,4.0,37,0.00,,,0.00,WeatherTracker,2013-02-27 18:42:00,
2013-02-27 13:44:00,73.9,46.4,29.83,WNW,292,6.0,6.0,37,0.00,,,0.00,WeatherTracker,2013-02-27 18:44:00,
2013-02-27 13:46:00,73.8,46.4,29.83,NNW,337,4.0,4.0,37,0.00,,,0.00,WeatherTracker,2013-02-27 18:46:00,
2013-02-27 13:47:00,73.8,44.6,29.83,North,0,5.0,5.0,35,0.00,,,0.00,WeatherTracker,2013-02-27 18:47:00,
2013-02-27 13:49:00,73.8,46.4,29.83,NNE,22,5.0,5.0,37,0.00,,,0.00,WeatherTracker,2013-02-27 18:49:00,
2013-02-27 13:51:00,73.8,46.4,29.83,North,0,5.0,7.0,36,0.00,,,0.00,WeatherTracker,2013-02-27 18:51:00,
2013-02-27 13:52:00,73.6,44.6,29.83,NNW,337,6.0,6.0,36,0.00,,,0.00,WeatherTracker,2013-02-27 18:52:00,
2013-02-27 13:54:00,73.8,46.4,29.83,NNW,337,5.0,6.0,37,0.00,,,0.00,WeatherTracker,2013-02-27 18:54:00,
2013-02-27 13:56:00,73.9,46.4,29.80,NNE,22,6.0,6.0,36,0.00,,,0.00,WeatherTracker,2013-02-27 18:56:00,
2013-02-27 13:57:00,73.9,46.4,29.80,North,0,5.0,5.0,37,0.00,,,0.00,WeatherTracker,2013-02-27 18:57:00,
2013-02-27 13:59:00,74.1,46.4,29.80,WSW,247,4.0,4.0,38,0.00,,,0.00,WeatherTracker,2013-02-27 18:59:00,
2013-02-27 14:00:00,74.1,46.4,29.80,West,270,4.0,5.0,38,0.00,,,0.00,WeatherTracker,2013-02-27 19:00:00,
2013-02-27 14:02:00,74.3,48.2,29.80,WNW,292,4.0,4.0,38,0.00,,,0.00,WeatherTracker,2013-02-27 19:02:00,
2013-02-27 14:04:00,74.5,48.2,29.80,WSW,247,3.0,4.0,38,0.00,,,0.00,WeatherTracker,2013-02-27 19:04:00,
2013-02-27 14:05:00,74.7,48.2,29.80,ENE,67,3.0,3.0,38,0.00,,,0.00,WeatherTracker,2013-02-27 19:05:00,
2013-02-27 14:07:00,74.7,48.2,29.80,SSW,202,2.0,2.0,38,0.00,,,0.00,WeatherTracker,2013-02-27 19:07:00,
2013-02-27 14:10:00,74.7,46.4,29.80,NW,315,5.0,5.0,37,0.00,,,0.00,WeatherTracker,2013-02-27 19:10:00,
2013-02-27 14:12:00,74.8,48.2,29.80,West,270,5.0,8.0,38,0.00,,,0.00,WeatherTracker,2013-02-27 19:12:00,
2013-02-27 14:13:00,74.8,46.4,29.80,West,270,5.0,9.0,37,0.00,,,0.00,WeatherTracker,2013-02-27 19:13:00,
2013-02-27 14:15:00,74.8,46.4,29.80,West,270,6.0,10.0,37,0.00,,,0.00,WeatherTracker,2013-02-27 19:15:00,
2013-02-27 14:17:00,75.0,48.2,29.80,WSW,247,4.0,4.0,37,0.00,,,0.00,WeatherTracker,2013-02-27 19:17:00,
2013-02-27 14:18:00,75.0,48.2,29.80,SSW,202,4.0,6.0,37,0.00,,,0.00,WeatherTracker,2013-02-27 19:18:00,
2013-02-27 14:20:00,75.0,48.2,29.80,West,270,5.0,8.0,37,0.00,,,0.00,WeatherTracker,2013-02-27 19:20:00,
2013-02-27 14:22:00,75.0,46.4,29.80,SSW,202,6.0,6.0,36,0.00,,,0.00,WeatherTracker,2013-02-27 19:22:00,
2013-02-27 14:23:00,75.0,48.2,29.80,SW,225,4.0,4.0,37,0.00,,,0.00,WeatherTracker,2013-02-27 19:23:00,
2013-02-27 14:25:00,75.2,46.4,29.80,SSW,202,6.0,7.0,36,0.00,,,0.00,WeatherTracker,2013-02-27 19:25:00,
2013-02-27 14:27:00,75.4,46.4,29.80,SSW,202,4.0,6.0,36,0.00,,,0.00,WeatherTracker,2013-02-27 19:27:00,
2013-02-27 14:28:00,75.4,46.4,29.80,West,270,4.0,4.0,36,0.00,,,0.00,WeatherTracker,2013-02-27 19:28:00,
2013-02-27 14:30:00,75.6,48.2,29.80,WNW,292,6.0,6.0,36,0.00,,,0.00,WeatherTracker,2013-02-27 19:30:00,
2013-02-27 14:32:00,75.6,48.2,29.80,NNW,337,4.0,6.0,36,0.00,,,0.00,WeatherTracker,2013-02-27 19:32:00,
2013-02-27 14:33:00,75.4,46.4,29.80,NNW,337,6.0,6.0,36,0.00,,,0.00,WeatherTracker,2013-02-27 19:33:00,
2013-02-27 14:34:00,75.4,46.4,29.80,WNW,292,7.0,7.0,36,0.00,,,0.00,WeatherTracker,2013-02-27 19:34:00,
2013-02-27 14:35:00,75.4,46.4,29.80,WNW,292,4.0,5.0,36,0.00,,,0.00,WeatherTracker,2013-02-27 19:35:00,
2013-02-27 14:37:00,75.2,46.4,29.80,West,270,4.0,8.0,36,0.00,,,0.00,WeatherTracker,2013-02-27 19:37:00,
2013-02-27 14:38:00,75.0,46.4,29.80,WNW,292,5.0,5.0,36,0.00,,,0.00,WeatherTracker,2013-02-27 19:38:00,
2013-02-27 14:40:00,74.8,46.4,29.80,WNW,292,4.0,4.0,36,0.00,,,0.00,WeatherTracker,2013-02-27 19:40:00,
2013-02-27 14:42:00,74.7,46.4,29.80,WSW,247,6.0,6.0,36,0.00,,,0.00,WeatherTracker,2013-02-27 19:42:00,
2013-02-27 14:43:00,74.7,46.4,29.80,WNW,292,3.0,4.0,37,0.00,,,0.00,WeatherTracker,2013-02-27 19:43:00,
2013-02-27 14:45:00,74.5,46.4,29.80,WNW,292,6.0,6.0,36,0.00,,,0.00,WeatherTracker,2013-02-27 19:45:00,
2013-02-27 14:46:00,74.5,46.4,29.80,WSW,247,6.0,6.0,36,0.00,,,0.00,WeatherTracker,2013-02-27 19:46:00,
2013-02-27 14:47:00,74.5,46.4,29.80,SW,225,7.0,7.0,37,0.00,,,0.00,WeatherTracker,2013-02-27 19:47:00,
2013-02-27 14:48:00,74.5,46.4,29.80,NNW,337,5.0,5.0,37,0.00,,,0.00,WeatherTracker,2013-02-27 19:48:00,
2013-02-27 14:51:00,74.5,46.4,29.80,West,270,5.0,11.0,36,0.00,,,0.00,WeatherTracker,2013-02-27 19:51:00,
2013-02-27 14:52:00,74.5,46.4,29.80,WNW,292,6.0,6.0,36,0.00,,,0.00,WeatherTracker,2013-02-27 19:52:00,
2013-02-27 14:53:00,74.3,46.4,29.80,WNW,292,6.0,6.0,36,0.00,,,0.00,WeatherTracker,2013-02-27 19:53:00,
2013-02-27 14:56:00,74.5,46.4,29.80,West,270,4.0,6.0,36,0.00,,,0.00,WeatherTracker,2013-02-27 19:56:00,
2013-02-27 14:57:00,74.7,44.6,29.80,WNW,292,7.0,7.0,35,0.00,,,0.00,WeatherTracker,2013-02-27 19:57:00,
2013-02-27 14:59:00,74.5,44.6,29.80,NNW,337,8.0,8.0,35,0.00,,,0.00,WeatherTracker,2013-02-27 19:59:00,
2013-02-27 15:01:00,73.9,44.6,29.80,NNW,337,7.0,7.0,35,0.00,,,0.00,WeatherTracker,2013-02-27 20:01:00,
2013-02-27 15:03:00,74.5,46.4,29.80,West,270,6.0,6.0,36,0.00,,,0.00,WeatherTracker,2013-02-27 20:03:00,
2013-02-27 15:04:00,74.5,46.4,29.80,WNW,292,4.0,4.0,36,0.00,,,0.00,WeatherTracker,2013-02-27 20:04:00,
2013-02-27 15:07:00,74.7,44.6,29.80,SSE,157,6.0,9.0,35,0.00,,,0.00,WeatherTracker,2013-02-27 20:07:00,
2013-02-27 15:08:00,74.5,44.6,29.80,WNW,292,7.0,7.0,35,0.00,,,0.00,WeatherTracker,2013-02-27 20:08:00,
2013-02-27 15:09:00,74.5,44.6,29.80,WSW,247,4.0,4.0,35,0.00,,,0.00,WeatherTracker,2013-02-27 20:09:00,
2013-02-27 15:12:00,74.3,44.6,29.80,WSW,247,3.0,3.0,34,0.00,,,0.00,WeatherTracker,2013-02-27 20:12:00,
2013-02-27 15:13:00,74.7,44.6,29.80,SSE,157,3.0,3.0,35,0.00,,,0.00,WeatherTracker,2013-02-27 20:13:00,
2013-02-27 15:14:00,74.8,46.4,29.80,WSW,247,3.0,5.0,36,0.00,,,0.00,WeatherTracker,2013-02-27 20:14:00,
2013-02-27 15:17:00,74.7,44.6,29.80,South,180,6.0,6.0,34,0.00,,,0.00,WeatherTracker,2013-02-27 20:17:00,
2013-02-27 15:18:00,75.0,46.4,29.80,SSE,157,4.0,4.0,35,0.00,,,0.00,WeatherTracker,2013-02-27 20:18:00,
2013-02-27 15:19:00,75.0,46.4,29.80,SE,135,2.0,3.0,35,0.00,,,0.00,WeatherTracker,2013-02-27 20:19:00,
2013-02-27 15:22:00,75.6,48.2,29.80,WNW,292,4.0,5.0,36,0.00,,,0.00,WeatherTracker,2013-02-27 20:22:00,
2013-02-27 15:23:00,75.6,46.4,29.80,WNW,292,8.0,8.0,35,0.00,,,0.00,WeatherTracker,2013-02-27 20:23:00,
2013-02-27 15:24:00,75.2,44.6,29.80,NNE,22,5.0,6.0,34,0.00,,,0.00,WeatherTracker,2013-02-27 20:24:00,
2013-02-27 15:25:00,75.2,44.6,29.80,NNW,337,5.0,6.0,34,0.00,,,0.00,WeatherTracker,2013-02-27 20:25:00,
2013-02-27 15:27:00,75.0,46.4,29.80,SSW,202,4.0,4.0,35,0.00,,,0.00,WeatherTracker,2013-02-27 20:27:00,
2013-02-27 15:28:00,75.2,46.4,29.80,West,270,6.0,8.0,35,0.00,,,0.00,WeatherTracker,2013-02-27 20:28:00,
2013-02-27 15:29:00,75.0,46.4,29.80,SSW,202,6.0,6.0,35,0.00,,,0.00,WeatherTracker,2013-02-27 20:29:00,
2013-02-27 15:30:00,75.0,46.4,29.80,NNW,337,6.0,6.0,35,0.00,,,0.00,WeatherTracker,2013-02-27 20:30:00,
2013-02-27 15:32:00,75.2,46.4,29.80,WSW,247,3.0,3.0,35,0.00,,,0.00,WeatherTracker,2013-02-27 20:32:00,
2013-02-27 15:33:00,75.2,46.4,29.80,SSW,202,5.0,5.0,35,0.00,,,0.00,WeatherTracker,2013-02-27 20:33:00,
2013-02-27 15:35:00,75.2,44.6,29.80,SW,225,5.0,5.0,34,0.00,,,0.00,WeatherTracker,2013-02-27 20:35:00,
2013-02-27 15:37:00,75.2,46.4,29.80,WNW,292,7.0,7.0,35,0.00,,,0.00,WeatherTracker,2013-02-27 20:37:00,
2013-02-27 15:38:00,75.2,46.4,29.80,WSW,247,7.0,8.0,35,0.00,,,0.00,WeatherTracker,2013-02-27 20:38:00,
2013-02-27 15:40:00,75.2,46.4,29.80,WSW,247,4.0,7.0,35,0.00,,,0.00,WeatherTracker,2013-02-27 20:40:00,
2013-02-27 15:42:00,75.4,46.4,29.80,SSW,202,5.0,5.0,35,0.00,,,0.00,WeatherTracker,2013-02-27 20:42:00,
2013-02-27 15:43:00,75.4,46.4,29.80,WSW,247,3.0,4.0,35,0.00,,,0.00,WeatherTracker,2013-02-27 20:43:00,
2013-02-27 15:45:00,75.6,46.4,29.80,WNW,292,4.0,4.0,35,0.00,,,0.00,WeatherTracker,2013-02-27 20:45:00,
2013-02-27 15:47:00,75.4,46.4,29.80,NNW,337,6.0,6.0,35,0.00,,,0.00,WeatherTracker,2013-02-27 20:47:00,
2013-02-27 15:48:00,75.2,44.6,29.80,NNE,22,4.0,4.0,34,0.00,,,0.00,WeatherTracker,2013-02-27 20:48:00,
2013-02-27 15:50:00,74.7,44.6,29.80,NNW,337,4.0,4.0,35,0.00,,,0.00,WeatherTracker,2013-02-27 20:50:00,
2013-02-27 15:52:00,74.7,44.6,29.80,WNW,292,4.0,5.0,35,0.00,,,0.00,WeatherTracker,2013-02-27 20:52:00,
2013-02-27 15:53:00,74.5,44.6,29.80,West,270,5.0,10.0,35,0.00,,,0.00,WeatherTracker,2013-02-27 20:53:00,
2013-02-27 15:55:00,74.1,44.6,29.80,WNW,292,4.0,6.0,35,0.00,,,0.00,WeatherTracker,2013-02-27 20:55:00,
2013-02-27 15:57:00,74.1,44.6,29.80,SSE,157,2.0,2.0,35,0.00,,,0.00,WeatherTracker,2013-02-27 20:57:00,
2013-02-27 15:58:00,74.1,46.4,29.80,WNW,292,2.0,3.0,36,0.00,,,0.00,WeatherTracker,2013-02-27 20:58:00,
2013-02-27 16:00:00,73.9,46.4,29.80,WNW,292,6.0,6.0,36,0.00,,,0.00,WeatherTracker,2013-02-27 21:00:00,
2013-02-27 16:03:00,73.8,46.4,29.80,SSW,202,5.0,5.0,36,0.00,,,0.00,WeatherTracker,2013-02-27 21:03:00,
2013-02-27 16:04:00,73.9,46.4,29.80,WNW,292,3.0,3.0,36,0.00,,,0.00,WeatherTracker,2013-02-27 21:04:00,
2013-02-27 16:05:00,74.1,46.4,29.80,SSW,202,3.0,6.0,36,0.00,,,0.00,WeatherTracker,2013-02-27 21:05:00,
2013-02-27 16:08:00,74.5,46.4,29.80,NW,315,4.0,5.0,36,0.00,,,0.00,WeatherTracker,2013-02-27 21:08:00,
2013-02-27 16:10:00,73.8,44.6,29.80,WNW,292,6.0,8.0,35,0.00,,,0.00,WeatherTracker,2013-02-27 21:10:00,
2013-02-27 16:11:00,73.8,44.6,29.80,NNW,337,7.0,7.0,35,0.00,,,0.00,WeatherTracker,2013-02-27 21:11:00,
2013-02-27 16:13:00,73.8,46.4,29.80,WSW,247,6.0,6.0,36,0.00,,,0.00,WeatherTracker,2013-02-27 21:13:00,
2013-02-27 16:16:00,73.8,46.4,29.80,WSW,247,4.0,6.0,36,0.00,,,0.00,WeatherTracker,2013-02-27 21:16:00,
2013-02-27 16:18:00,73.9,46.4,29.80,NW,315,7.0,7.0,36,0.00,,,0.00,WeatherTracker,2013-02-27 21:18:00,
2013-02-27 16:21:00,73.9,46.4,29.80,NNW,337,5.0,8.0,36,0.00,,,0.00,WeatherTracker,2013-02-27 21:21:00,
2013-02-27 16:23:00,73.9,46.4,29.80,WNW,292,4.0,4.0,36,0.00,,,0.00,WeatherTracker,2013-02-27 21:23:00,
2013-02-27 16:26:00,73.9,44.6,29.80,NW,315,4.0,4.0,35,0.00,,,0.00,WeatherTracker,2013-02-27 21:26:00,
2013-02-27 16:27:00,73.9,46.4,29.80,SW,225,4.0,5.0,36,0.00,,,0.00,WeatherTracker,2013-02-27 21:27:00,
2013-02-27 16:28:00,73.9,46.4,29.80,WNW,292,4.0,4.0,36,0.00,,,0.00,WeatherTracker,2013-02-27 21:28:00,
2013-02-27 16:31:00,73.8,46.4,29.80,WNW,292,7.0,7.0,36,0.00,,,0.00,WeatherTracker,2013-02-27 21:31:00,
2013-02-27 16:33:00,73.8,46.4,29.80,NNW,337,6.0,8.0,36,0.00,,,0.00,WeatherTracker,2013-02-27 21:33:00,
2013-02-27 16:34:00,73.6,44.6,29.80,WNW,292,6.0,6.0,36,0.00,,,0.00,WeatherTracker,2013-02-27 21:34:00,
2013-02-27 16:36:00,73.0,44.6,29.80,SW,225,6.0,6.0,36,0.00,,,0.00,WeatherTracker,2013-02-27 21:36:00,
2013-02-27 16:38:00,73.6,44.6,29.80,WNW,292,6.0,6.0,36,0.00,,,0.00,WeatherTracker,2013-02-27 21:38:00,
2013-02-27 16:39:00,73.6,44.6,29.80,NNW,337,6.0,6.0,36,0.00,,,0.00,WeatherTracker,2013-02-27 21:39:00,
2013-02-27 16:41:00,73.6,44.6,29.80,SSW,202,6.0,6.0,36,0.00,,,0.00,WeatherTracker,2013-02-27 21:41:00,
2013-02-27 16:44:00,73.2,44.6,29.80,WNW,292,6.0,8.0,36,0.00,,,0.00,WeatherTracker,2013-02-27 21:44:00,
2013-02-27 16:46:00,73.0,44.6,29.80,NW,315,3.0,3.0,37,0.00,,,0.00,WeatherTracker,2013-02-27 21:46:00,
2013-02-27 16:49:00,73.0,44.6,29.80,North,0,3.0,4.0,37,0.00,,,0.00,WeatherTracker,2013-02-27 21:49:00,
2013-02-27 16:50:00,72.5,44.6,29.80,WNW,292,4.0,8.0,36,0.00,,,0.00,WeatherTracker,2013-02-27 21:50:00,
2013-02-27 16:51:00,72.9,44.6,29.80,WNW,292,6.0,8.0,37,0.00,,,0.00,WeatherTracker,2013-02-27 21:51:00,
2013-02-27 16:54:00,72.3,44.6,29.80,NNW,337,5.0,5.0,36,0.00,,,0.00,WeatherTracker,2013-02-27 21:54:00,
2013-02-27 16:55:00,72.3,44.6,29.83,NW,315,4.0,4.0,36,0.00,,,0.00,WeatherTracker,2013-02-27 21:55:00,
2013-02-27 16:56:00,72.5,44.6,29.83,WNW,292,4.0,9.0,37,0.00,,,0.00,WeatherTracker,2013-02-27 21:56:00,
2013-02-27 16:59:00,72.1,44.6,29.83,NNW,337,4.0,5.0,36,0.00,,,0.00,WeatherTracker,2013-02-27 21:59:00,
2013-02-27 17:01:00,72.0,44.6,29.83,WNW,292,6.0,6.0,36,0.00,,,0.00,WeatherTracker,2013-02-27 22:01:00,
2013-02-27 17:02:00,72.1,44.6,29.83,WNW,292,5.0,6.0,36,0.00,,,0.00,WeatherTracker,2013-02-27 22:02:00,
2013-02-27 17:04:00,72.0,44.6,29.83,NNW,337,5.0,5.0,36,0.00,,,0.00,WeatherTracker,2013-02-27 22:04:00,
2013-02-27 17:06:00,71.2,42.8,29.83,NNW,337,5.0,8.0,36,0.00,,,0.00,WeatherTracker,2013-02-27 22:06:00,
2013-02-27 17:07:00,71.2,42.8,29.83,WNW,292,5.0,6.0,36,0.00,,,0.00,WeatherTracker,2013-02-27 22:07:00,
2013-02-27 17:09:00,71.2,42.8,29.83,WNW,292,4.0,4.0,37,0.00,,,0.00,WeatherTracker,2013-02-27 22:09:00,
2013-02-27 17:11:00,71.4,44.6,29.80,North,0,5.0,5.0,37,0.00,,,0.00,WeatherTracker,2013-02-27 22:11:00,
2013-02-27 17:12:00,71.4,44.6,29.80,WNW,292,4.0,4.0,37,0.00,,,0.00,WeatherTracker,2013-02-27 22:12:00,
2013-02-27 17:14:00,71.4,44.6,29.80,NNW,337,5.0,5.0,37,0.00,,,0.00,WeatherTracker,2013-02-27 22:14:00,
2013-02-27 17:15:00,71.4,44.6,29.80,NW,315,4.0,6.0,37,0.00,,,0.00,WeatherTracker,2013-02-27 22:15:00,
2013-02-27 17:16:00,71.4,44.6,29.80,WNW,292,4.0,4.0,37,0.00,,,0.00,WeatherTracker,2013-02-27 22:16:00,
2013-02-27 17:17:00,71.2,42.8,29.80,NW,315,4.0,4.0,37,0.00,,,0.00,WeatherTracker,2013-02-27 22:17:00,
2013-02-27 17:19:00,71.2,42.8,29.80,SW,225,4.0,6.0,37,0.00,,,0.00,WeatherTracker,2013-02-27 22:19:00,
2013-02-27 17:20:00,71.2,42.8,29.80,WSW,247,5.0,5.0,37,0.00,,,0.00,WeatherTracker,2013-02-27 22:20:00,
2013-02-27 17:22:00,71.1,42.8,29.80,West,270,2.0,2.0,37,0.00,,,0.00,WeatherTracker,2013-02-27 22:22:00,
2013-02-27 17:24:00,70.9,42.8,29.80,WNW,292,3.0,3.0,37,0.00,,,0.00,WeatherTracker,2013-02-27 22:24:00,
2013-02-27 17:25:00,70.7,42.8,29.80,NNE,22,3.0,5.0,37,0.00,,,0.00,WeatherTracker,2013-02-27 22:25:00,
2013-02-27 17:28:00,70.7,42.8,29.80,WSW,247,4.0,4.0,37,0.00,,,0.00,WeatherTracker,2013-02-27 22:28:00,
2013-02-27 17:29:00,70.5,42.8,29.80,NNW,337,3.0,4.0,38,0.00,,,0.00,WeatherTracker,2013-02-27 22:29:00,
2013-02-27 17:30:00,70.0,42.8,29.80,NNW,337,3.0,4.0,37,0.00,,,0.00,WeatherTracker,2013-02-27 22:30:00,
2013-02-27 17:33:00,69.8,42.8,29.80,NNW,337,3.0,3.0,38,0.00,,,0.00,WeatherTracker,2013-02-27 22:33:00,
2013-02-27 17:34:00,69.6,42.8,29.80,WNW,292,3.0,3.0,38,0.00,,,0.00,WeatherTracker,2013-02-27 22:34:00,
2013-02-27 17:35:00,69.6,44.6,29.80,WNW,292,2.0,5.0,39,0.00,,,0.00,WeatherTracker,2013-02-27 22:35:00,
2013-02-27 17:38:00,69.4,42.8,29.80,WNW,292,3.0,6.0,39,0.00,,,0.00,WeatherTracker,2013-02-27 22:38:00,
2013-02-27 17:39:00,69.3,42.8,29.80,NNW,337,5.0,8.0,39,0.00,,,0.00,WeatherTracker,2013-02-27 22:39:00,
2013-02-27 17:40:00,69.1,42.8,29.80,WNW,292,7.0,7.0,39,0.00,,,0.00,WeatherTracker,2013-02-27 22:40:00,
2013-02-27 17:41:00,69.1,42.8,29.80,NNE,22,4.0,4.0,39,0.00,,,0.00,WeatherTracker,2013-02-27 22:41:00,
2013-02-27 17:43:00,68.7,42.8,29.80,NNW,337,3.0,6.0,39,0.00,,,0.00,WeatherTracker,2013-02-27 22:43:00,
2013-02-27 17:44:00,68.7,42.8,29.80,NNW,337,4.0,5.0,39,0.00,,,0.00,WeatherTracker,2013-02-27 22:44:00,
2013-02-27 17:45:00,68.9,42.8,29.80,NNW,337,4.0,4.0,39,0.00,,,0.00,WeatherTracker,2013-02-27 22:45:00,
2013-02-27 17:46:00,68.7,42.8,29.80,NNE,22,4.0,4.0,39,0.00,,,0.00,WeatherTracker,2013-02-27 22:46:00,
2013-02-27 17:48:00,68.7,42.8,29.80,NNW,337,4.0,4.0,39,0.00,,,0.00,WeatherTracker,2013-02-27 22:48:00,
2013-02-27 17:49:00,68.5,42.8,29.80,NW,315,3.0,5.0,39,0.00,,,0.00,WeatherTracker,2013-02-27 22:49:00,
2013-02-27 17:50:00,68.4,42.8,29.80,WNW,292,4.0,6.0,40,0.00,,,0.00,WeatherTracker,2013-02-27 22:50:00,
2013-02-27 17:51:00,68.2,42.8,29.80,NW,315,4.0,4.0,40,0.00,,,0.00,WeatherTracker,2013-02-27 22:51:00,
2013-02-27 17:53:00,68.2,42.8,29.80,WSW,247,4.0,4.0,40,0.00,,,0.00,WeatherTracker,2013-02-27 22:53:00,
2013-02-27 17:54:00,68.2,42.8,29.80,WNW,292,3.0,3.0,40,0.00,,,0.00,WeatherTracker,2013-02-27 22:54:00,
2013-02-27 17:55:00,68.2,42.8,29.80,WSW,247,2.0,3.0,40,0.00,,,0.00,WeatherTracker,2013-02-27 22:55:00,
2013-02-27 17:56:00,68.2,42.8,29.80,WNW,292,3.0,5.0,40,0.00,,,0.00,WeatherTracker,2013-02-27 22:56:00,
2013-02-27 17:58:00,67.8,42.8,29.80,WNW,292,2.0,2.0,41,0.00,,,0.00,WeatherTracker,2013-02-27 22:58:00,
2013-02-27 17:59:00,68.0,42.8,29.80,WNW,292,2.0,2.0,41,0.00,,,0.00,WeatherTracker,2013-02-27 22:59:00,
2013-02-27 18:01:00,67.8,42.8,29.80,WNW,292,4.0,6.0,41,0.00,,,0.00,WeatherTracker,2013-02-27 23:01:00,
2013-02-27 18:03:00,67.6,42.8,29.80,NNW,337,4.0,4.0,42,0.00,,,0.00,WeatherTracker,2013-02-27 23:03:00,
2013-02-27 18:04:00,67.6,42.8,29.80,NNW,337,4.0,6.0,42,0.00,,,0.00,WeatherTracker,2013-02-27 23:04:00,
2013-02-27 18:06:00,67.3,42.8,29.80,NNW,337,4.0,5.0,42,0.00,,,0.00,WeatherTracker,2013-02-27 23:06:00,
2013-02-27 18:08:00,67.3,42.8,29.80,NNW,337,4.0,5.0,42,0.00,,,0.00,WeatherTracker,2013-02-27 23:08:00,
2013-02-27 18:09:00,67.3,42.8,29.80,NNW,337,4.0,4.0,42,0.00,,,0.00,WeatherTracker,2013-02-27 23:09:00,
2013-02-27 18:11:00,67.1,42.8,29.83,WNW,292,6.0,6.0,42,0.00,,,0.00,WeatherTracker,2013-02-27 23:11:00,
2013-02-27 18:13:00,67.1,42.8,29.83,WNW,292,3.0,6.0,42,0.00,,,0.00,WeatherTracker,2013-02-27 23:13:00,
2013-02-27 18:14:00,67.1,42.8,29.83,NNW,337,4.0,4.0,42,0.00,,,0.00,WeatherTracker,2013-02-27 23:14:00,
2013-02-27 18:16:00,66.9,42.8,29.83,NNW,337,4.0,4.0,42,0.00,,,0.00,WeatherTracker,2013-02-27 23:16:00,
2013-02-27 18:18:00,66.7,42.8,29.83,NNW,337,3.0,4.0,43,0.00,,,0.00,WeatherTracker,2013-02-27 23:18:00,
2013-02-27 18:19:00,66.7,42.8,29.83,NNW,337,4.0,4.0,43,0.00,,,0.00,WeatherTracker,2013-02-27 23:19:00,
2013-02-27 18:21:00,66.6,42.8,29.83,NNW,337,4.0,4.0,43,0.00,,,0.00,WeatherTracker,2013-02-27 23:21:00,
2013-02-27 18:22:00,66.6,42.8,29.83,NNW,337,4.0,6.0,43,0.00,,,0.00,WeatherTracker,2013-02-27 23:22:00,
2013-02-27 18:23:00,66.4,42.8,29.83,North,0,4.0,5.0,43,0.00,,,0.00,WeatherTracker,2013-02-27 23:23:00,
2013-02-27 18:25:00,66.2,42.8,29.83,NNW,337,6.0,6.0,43,0.00,,,0.00,WeatherTracker,2013-02-27 23:25:00,
2013-02-27 18:27:00,66.2,42.8,29.83,NNW,337,4.0,5.0,43,0.00,,,0.00,WeatherTracker,2013-02-27 23:27:00,
2013-02-27 18:28:00,66.0,44.6,29.83,NNE,22,4.0,4.0,44,0.00,,,0.00,WeatherTracker,2013-02-27 23:28:00,
2013-02-27 18:30:00,66.0,44.6,29.83,NNW,337,4.0,4.0,44,0.00,,,0.00,WeatherTracker,2013-02-27 23:30:00,
2013-02-27 18:32:00,66.0,44.6,29.83,WSW,247,5.0,6.0,44,0.00,,,0.00,WeatherTracker,2013-02-27 23:32:00,
2013-02-27 18:33:00,65.8,42.8,29.83,NW,315,5.0,5.0,44,0.00,,,0.00,WeatherTracker,2013-02-27 23:33:00,
2013-02-27 18:35:00,65.8,42.8,29.83,North,0,4.0,5.0,44,0.00,,,0.00,WeatherTracker,2013-02-27 23:35:00,
2013-02-27 18:37:00,65.7,42.8,29.83,NNE,22,3.0,6.0,44,0.00,,,0.00,WeatherTracker,2013-02-27 23:37:00,
2013-02-27 18:38:00,65.7,44.6,29.83,NNW,337,4.0,4.0,45,0.00,,,0.00,WeatherTracker,2013-02-27 23:38:00,
2013-02-27 18:40:00,65.3,44.6,29.83,NNW,337,6.0,6.0,45,0.00,,,0.00,WeatherTracker,2013-02-27 23:40:00,
2013-02-27 18:42:00,65.3,44.6,29.83,NNW,337,4.0,4.0,45,0.00,,,0.00,WeatherTracker,2013-02-27 23:42:00,
2013-02-27 18:43:00,65.1,42.8,29.83,NNE,22,3.0,4.0,45,0.00,,,0.00,WeatherTracker,2013-02-27 23:43:00,
2013-02-27 18:45:00,65.1,42.8,29.83,NW,315,4.0,5.0,45,0.00,,,0.00,WeatherTracker,2013-02-27 23:45:00,
2013-02-27 18:47:00,64.9,42.8,29.83,NNE,22,4.0,4.0,45,0.00,,,0.00,WeatherTracker,2013-02-27 23:47:00,
2013-02-27 18:48:00,64.9,42.8,29.83,NNW,337,3.0,6.0,45,0.00,,,0.00,WeatherTracker,2013-02-27 23:48:00,
2013-02-27 18:50:00,64.8,42.8,29.83,NNW,337,2.0,3.0,45,0.00,,,0.00,WeatherTracker,2013-02-27 23:50:00,
2013-02-27 18:52:00,64.8,42.8,29.83,NNW,337,6.0,6.0,45,0.00,,,0.00,WeatherTracker,2013-02-27 23:52:00,
2013-02-27 18:53:00,64.6,42.8,29.83,NW,315,4.0,4.0,45,0.00,,,0.00,WeatherTracker,2013-02-27 23:53:00,
2013-02-27 18:55:00,64.6,42.8,29.83,NW,315,4.0,4.0,45,0.00,,,0.00,WeatherTracker,2013-02-27 23:55:00,
2013-02-27 18:57:00,64.4,42.8,29.83,NW,315,4.0,4.0,45,0.00,,,0.00,WeatherTracker,2013-02-27 23:57:00,
2013-02-27 18:58:00,64.4,42.8,29.83,WNW,292,3.0,5.0,46,0.00,,,0.00,WeatherTracker,2013-02-27 23:58:00,
2013-02-27 19:01:00,64.2,42.8,29.83,NNW,337,3.0,4.0,46,0.00,,,0.00,WeatherTracker,2013-02-28 00:01:00,
2013-02-27 19:02:00,64.2,42.8,29.83,NNW,337,4.0,6.0,46,0.00,,,0.00,WeatherTracker,2013-02-28 00:02:00,
2013-02-27 19:03:00,64.2,42.8,29.83,WNW,292,4.0,4.0,46,0.00,,,0.00,WeatherTracker,2013-02-28 00:03:00,
2013-02-27 19:07:00,64.0,42.8,29.83,NW,315,4.0,4.0,47,0.00,,,0.00,WeatherTracker,2013-02-28 00:07:00,
2013-02-27 19:08:00,64.0,42.8,29.83,NNW,337,4.0,6.0,47,0.00,,,0.00,WeatherTracker,2013-02-28 00:08:00,
2013-02-27 19:09:00,64.0,42.8,29.83,North,0,5.0,5.0,47,0.00,,,0.00,WeatherTracker,2013-02-28 00:09:00,
2013-02-27 19:13:00,63.9,42.8,29.83,NNW,337,3.0,5.0,47,0.00,,,0.00,WeatherTracker,2013-02-28 00:13:00,
2013-02-27 19:14:00,63.7,42.8,29.83,NNE,22,4.0,4.0,47,0.00,,,0.00,WeatherTracker,2013-02-28 00:14:00,
2013-02-27 19:18:00,63.7,42.8,29.83,NNW,337,4.0,4.0,47,0.00,,,0.00,WeatherTracker,2013-02-28 00:18:00,
2013-02-27 19:19:00,63.5,42.8,29.83,NNW,337,4.0,4.0,47,0.00,,,0.00,WeatherTracker,2013-02-28 00:19:00,
2013-02-27 19:23:00,63.1,42.8,29.83,NW,315,4.0,4.0,48,0.00,,,0.00,WeatherTracker,2013-02-28 00:23:00,
2013-02-27 19:24:00,63.1,42.8,29.83,WNW,292,4.0,4.0,48,0.00,,,0.00,WeatherTracker,2013-02-28 00:24:00,
2013-02-27 19:28:00,63.1,42.8,29.85,NNW,337,6.0,6.0,48,0.00,,,0.00,WeatherTracker,2013-02-28 00:28:00,
2013-02-27 19:29:00,63.1,42.8,29.85,North,0,4.0,5.0,48,0.00,,,0.00,WeatherTracker,2013-02-28 00:29:00,
2013-02-27 19:33:00,63.0,42.8,29.85,NNW,337,4.0,4.0,48,0.00,,,0.00,WeatherTracker,2013-02-28 00:33:00,
2013-02-27 19:34:00,62.8,42.8,29.85,NNW,337,4.0,6.0,48,0.00,,,0.00,WeatherTracker,2013-02-28 00:34:00,
2013-02-27 19:38:00,62.6,42.8,29.85,NNW,337,4.0,4.0,48,0.00,,,0.00,WeatherTracker,2013-02-28 00:38:00,
2013-02-27 19:39:00,62.6,42.8,29.85,NNW,337,4.0,5.0,48,0.00,,,0.00,WeatherTracker,2013-02-28 00:39:00,
2013-02-27 19:40:00,62.6,42.8,29.85,North,0,4.0,5.0,48,0.00,,,0.00,WeatherTracker,2013-02-28 00:40:00,
2013-02-27 19:44:00,62.4,42.8,29.85,NNW,337,5.0,6.0,49,0.00,,,0.00,WeatherTracker,2013-02-28 00:44:00,
2013-02-27 19:45:00,62.4,42.8,29.85,NNW,337,4.0,5.0,49,0.00,,,0.00,WeatherTracker,2013-02-28 00:45:00,
2013-02-27 19:49:00,62.2,42.8,29.85,WNW,292,6.0,6.0,50,0.00,,,0.00,WeatherTracker,2013-02-28 00:49:00,
2013-02-27 19:50:00,62.2,42.8,29.85,NNW,337,5.0,5.0,49,0.00,,,0.00,WeatherTracker,2013-02-28 00:50:00,
2013-02-27 19:51:00,62.1,42.8,29.85,North,0,4.0,5.0,50,0.00,,,0.00,WeatherTracker,2013-02-28 00:51:00,
2013-02-27 19:54:00,61.9,42.8,29.85,NNW,337,3.0,6.0,50,0.00,,,0.00,WeatherTracker,2013-02-28 00:54:00,
2013-02-27 19:55:00,61.7,42.8,29.85,NNE,22,4.0,4.0,50,0.00,,,0.00,WeatherTracker,2013-02-28 00:55:00,
2013-02-27 19:56:00,61.7,42.8,29.85,NW,315,4.0,5.0,50,0.00,,,0.00,WeatherTracker,2013-02-28 00:56:00,
2013-02-27 19:59:00,61.7,42.8,29.85,NNW,337,4.0,4.0,50,0.00,,,0.00,WeatherTracker,2013-02-28 00:59:00,
2013-02-27 20:00:00,61.7,42.8,29.85,NNW,337,4.0,4.0,50,0.00,,,0.00,WeatherTracker,2013-02-28 01:00:00,
2013-02-27 20:01:00,61.7,42.8,29.85,NNW,337,3.0,4.0,50,0.00,,,0.00,WeatherTracker,2013-02-28 01:01:00,
2013-02-27 20:04:00,61.3,42.8,29.85,NNW,337,6.0,6.0,51,0.00,,,0.00,WeatherTracker,2013-02-28 01:04:00,
2013-02-27 20:05:00,61.5,42.8,29.85,NNW,337,2.0,2.0,51,0.00,,,0.00,WeatherTracker,2013-02-28 01:05:00,
2013-02-27 20:07:00,61.3,42.8,29.85,NNE,22,3.0,3.0,51,0.00,,,0.00,WeatherTracker,2013-02-28 01:07:00,
2013-02-27 20:09:00,61.3,42.8,29.85,NW,315,4.0,4.0,51,0.00,,,0.00,WeatherTracker,2013-02-28 01:09:00,
2013-02-27 20:10:00,61.3,42.8,29.85,NNW,337,3.0,4.0,51,0.00,,,0.00,WeatherTracker,2013-02-28 01:10:00,
2013-02-27 20:13:00,61.3,42.8,29.85,NNW,337,4.0,4.0,50,0.00,,,0.00,WeatherTracker,2013-02-28 01:13:00,
2013-02-27 20:14:00,61.3,42.8,29.85,WNW,292,4.0,5.0,51,0.00,,,0.00,WeatherTracker,2013-02-28 01:14:00,
2013-02-27 20:15:00,61.3,42.8,29.85,NNW,337,4.0,4.0,51,0.00,,,0.00,WeatherTracker,2013-02-28 01:15:00,
2013-02-27 20:18:00,61.2,42.8,29.85,NNW,337,4.0,4.0,51,0.00,,,0.00,WeatherTracker,2013-02-28 01:18:00,
2013-02-27 20:19:00,61.2,42.8,29.85,North,0,3.0,4.0,51,0.00,,,0.00,WeatherTracker,2013-02-28 01:19:00,
2013-02-27 20:20:00,61.2,42.8,29.85,NNE,22,4.0,4.0,51,0.00,,,0.00,WeatherTracker,2013-02-28 01:20:00,
2013-02-27 20:21:00,61.2,42.8,29.85,NNE,22,4.0,4.0,51,0.00,,,0.00,WeatherTracker,2013-02-28 01:21:00,
2013-02-27 20:24:00,61.0,42.8,29.85,NNW,337,3.0,3.0,51,0.00,,,0.00,WeatherTracker,2013-02-28 01:24:00,
2013-02-27 20:25:00,61.0,42.8,29.85,NNE,22,2.0,3.0,51,0.00,,,0.00,WeatherTracker,2013-02-28 01:25:00,
2013-02-27 20:26:00,61.0,42.8,29.85,North,0,3.0,5.0,51,0.00,,,0.00,WeatherTracker,2013-02-28 01:26:00,
2013-02-27 20:29:00,61.0,42.8,29.85,NNW,337,3.0,3.0,52,0.00,,,0.00,WeatherTracker,2013-02-28 01:29:00,
2013-02-27 20:30:00,61.0,42.8,29.85,North,0,3.0,5.0,52,0.00,,,0.00,WeatherTracker,2013-02-28 01:30:00,
2013-02-27 20:31:00,60.8,44.6,29.85,North,0,4.0,4.0,53,0.00,,,0.00,WeatherTracker,2013-02-28 01:31:00,
2013-02-27 20:34:00,60.8,44.6,29.85,NNE,22,2.0,4.0,53,0.00,,,0.00,WeatherTracker,2013-02-28 01:34:00,
2013-02-27 20:36:00,60.6,44.6,29.85,NW,315,2.0,4.0,54,0.00,,,0.00,WeatherTracker,2013-02-28 01:36:00,
2013-02-27 20:37:00,60.6,44.6,29.85,North,0,4.0,4.0,53,0.00,,,0.00,WeatherTracker,2013-02-28 01:37:00,
2013-02-27 20:39:00,60.6,44.6,29.85,NNE,22,4.0,4.0,53,0.00,,,0.00,WeatherTracker,2013-02-28 01:39:00,
2013-02-27 20:41:00,60.6,44.6,29.85,NW,315,3.0,4.0,54,0.00,,,0.00,WeatherTracker,2013-02-28 01:41:00,
2013-02-27 20:42:00,60.6,44.6,29.85,NNE,22,3.0,3.0,53,0.00,,,0.00,WeatherTracker,2013-02-28 01:42:00,
2013-02-27 20:44:00,60.6,44.6,29.85,NNE,22,2.0,2.0,54,0.00,,,0.00,WeatherTracker,2013-02-28 01:44:00,
2013-02-27 20:46:00,60.4,44.6,29.85,NNW,337,2.0,2.0,54,0.00,,,0.00,WeatherTracker,2013-02-28 01:46:00,
2013-02-27 20:47:00,60.4,44.6,29.85,North,0,2.0,2.0,54,0.00,,,0.00,WeatherTracker,2013-02-28 01:47:00,
2013-02-27 20:50:00,60.4,44.6,29.85,NNE,22,3.0,3.0,54,0.00,,,0.00,WeatherTracker,2013-02-28 01:50:00,
2013-02-27 20:51:00,60.4,44.6,29.85,NNW,337,2.0,5.0,54,0.00,,,0.00,WeatherTracker,2013-02-28 01:51:00,
2013-02-27 20:53:00,60.4,44.6,29.85,North,0,2.0,3.0,54,0.00,,,0.00,WeatherTracker,2013-02-28 01:53:00,
2013-02-27 20:55:00,60.4,44.6,29.85,NNW,337,3.0,3.0,54,0.00,,,0.00,WeatherTracker,2013-02-28 01:55:00,
2013-02-27 20:56:00,60.4,44.6,29.85,NNW,337,2.0,2.0,54,0.00,,,0.00,WeatherTracker,2013-02-28 01:56:00,
2013-02-27 20:58:00,60.4,44.6,29.85,NNW,337,1.0,1.0,54,0.00,,,0.00,WeatherTracker,2013-02-28 01:58:00,
2013-02-27 21:00:00,60.4,44.6,29.85,NNW,337,2.0,2.0,54,0.00,,,0.00,WeatherTracker,2013-02-28 02:00:00,
2013-02-27 21:01:00,60.4,44.6,29.85,WNW,292,2.0,2.0,54,0.00,,,0.00,WeatherTracker,2013-02-28 02:01:00,
2013-02-27 21:03:00,60.3,44.6,29.85,NNW,337,2.0,3.0,54,0.00,,,0.00,WeatherTracker,2013-02-28 02:03:00,
2013-02-27 21:05:00,60.3,44.6,29.85,WNW,292,2.0,2.0,54,0.00,,,0.00,WeatherTracker,2013-02-28 02:05:00,
2013-02-27 21:06:00,60.3,44.6,29.85,North,0,2.0,2.0,54,0.00,,,0.00,WeatherTracker,2013-02-28 02:06:00,
2013-02-27 21:08:00,60.3,44.6,29.85,NNW,337,1.0,2.0,54,0.00,,,0.00,WeatherTracker,2013-02-28 02:08:00,
2013-02-27 21:10:00,60.1,44.6,29.85,NW,315,2.0,3.0,56,0.00,,,0.00,WeatherTracker,2013-02-28 02:10:00,
2013-02-27 21:11:00,60.1,44.6,29.85,NW,315,2.0,3.0,56,0.00,,,0.00,WeatherTracker,2013-02-28 02:11:00,
2013-02-27 21:13:00,60.3,44.6,29.85,NW,315,3.0,3.0,54,0.00,,,0.00,WeatherTracker,2013-02-28 02:13:00,
2013-02-27 21:16:00,60.3,44.6,29.85,NNW,337,3.0,4.0,55,0.00,,,0.00,WeatherTracker,2013-02-28 02:16:00,
2013-02-27 21:19:00,60.1,44.6,29.85,NNE,22,2.0,2.0,55,0.00,,,0.00,WeatherTracker,2013-02-28 02:19:00,
2013-02-27 21:21:00,60.1,44.6,29.85,NNE,22,2.0,2.0,55,0.00,,,0.00,WeatherTracker,2013-02-28 02:21:00,
2013-02-27 21:24:00,60.1,44.6,29.85,NNW,337,2.0,2.0,55,0.00,,,0.00,WeatherTracker,2013-02-28 02:24:00,
2013-02-27 21:26:00,60.1,44.6,29.85,WNW,292,1.0,1.0,55,0.00,,,0.00,WeatherTracker,2013-02-28 02:26:00,
2013-02-27 21:29:00,60.1,44.6,29.85,WNW,292,3.0,3.0,55,0.00,,,0.00,WeatherTracker,2013-02-28 02:29:00,
2013-02-27 21:31:00,60.1,44.6,29.85,NW,315,3.0,3.0,55,0.00,,,0.00,WeatherTracker,2013-02-28 02:31:00,
2013-02-27 21:34:00,60.1,44.6,29.85,WNW,292,2.0,2.0,55,0.00,,,0.00,WeatherTracker,2013-02-28 02:34:00,
2013-02-27 21:36:00,60.1,44.6,29.85,West,270,1.0,1.0,55,0.00,,,0.00,WeatherTracker,2013-02-28 02:36:00,
2013-02-27 21:37:00,60.1,44.6,29.85,West,270,1.0,0.0,55,0.00,,,0.00,WeatherTracker,2013-02-28 02:37:00,
2013-02-27 21:39:00,59.9,44.6,29.85,WNW,292,1.0,0.0,55,0.00,,,0.00,WeatherTracker,2013-02-28 02:39:00,
2013-02-27 21:41:00,59.9,44.6,29.85,WNW,292,0.0,0.0,55,0.00,,,0.00,WeatherTracker,2013-02-28 02:41:00,
2013-02-27 21:42:00,59.9,44.6,29.85,NNW,337,1.0,2.0,55,0.00,,,0.00,WeatherTracker,2013-02-28 02:42:00,
2013-02-27 21:45:00,59.9,44.6,29.85,NNW,337,2.0,2.0,55,0.00,,,0.00,WeatherTracker,2013-02-28 02:45:00,
2013-02-27 21:46:00,59.9,44.6,29.85,WNW,292,2.0,2.0,56,0.00,,,0.00,WeatherTracker,2013-02-28 02:46:00,
2013-02-27 21:47:00,59.9,44.6,29.85,NNW,337,2.0,2.0,56,0.00,,,0.00,WeatherTracker,2013-02-28 02:47:00,
2013-02-27 21:48:00,59.9,44.6,29.85,NNW,337,2.0,3.0,56,0.00,,,0.00,WeatherTracker,2013-02-28 02:48:00,
2013-02-27 21:50:00,59.9,44.6,29.85,WNW,292,2.0,0.0,56,0.00,,,0.00,WeatherTracker,2013-02-28 02:50:00,
2013-02-27 21:52:00,59.9,44.6,29.85,NW,315,2.0,2.0,56,0.00,,,0.00,WeatherTracker,2013-02-28 02:52:00,
2013-02-27 21:53:00,59.9,44.6,29.85,WNW,292,0.0,0.0,56,0.00,,,0.00,WeatherTracker,2013-02-28 02:53:00,
2013-02-27 21:55:00,59.9,44.6,29.85,WNW,292,1.0,0.0,56,0.00,,,0.00,WeatherTracker,2013-02-28 02:55:00,
2013-02-27 21:57:00,59.9,44.6,29.85,WNW,292,0.0,1.0,56,0.00,,,0.00,WeatherTracker,2013-02-28 02:57:00,
2013-02-27 21:58:00,59.9,44.6,29.85,NNW,337,1.0,1.0,56,0.00,,,0.00,WeatherTracker,2013-02-28 02:58:00,
2013-02-27 22:01:00,59.9,44.6,29.85,NW,315,3.0,3.0,57,0.00,,,0.00,WeatherTracker,2013-02-28 03:01:00,
2013-02-27 22:02:00,59.9,44.6,29.85,NW,315,3.0,4.0,57,0.00,,,0.00,WeatherTracker,2013-02-28 03:02:00,
2013-02-27 22:03:00,59.9,44.6,29.85,NNW,337,3.0,3.0,57,0.00,,,0.00,WeatherTracker,2013-02-28 03:03:00,
2013-02-27 22:06:00,59.9,44.6,29.85,WNW,292,2.0,4.0,56,0.00,,,0.00,WeatherTracker,2013-02-28 03:06:00,
2013-02-27 22:07:00,59.9,44.6,29.85,NW,315,3.0,3.0,56,0.00,,,0.00,WeatherTracker,2013-02-28 03:07:00,
2013-02-27 22:08:00,59.9,44.6,29.85,NW,315,3.0,4.0,56,0.00,,,0.00,WeatherTracker,2013-02-28 03:08:00,
2013-02-27 22:09:00,59.9,44.6,29.85,NNW,337,3.0,3.0,56,0.00,,,0.00,WeatherTracker,2013-02-28 03:09:00,
2013-02-27 22:11:00,59.9,44.6,29.85,NNW,337,3.0,5.0,56,0.00,,,0.00,WeatherTracker,2013-02-28 03:11:00,
2013-02-27 22:12:00,59.9,44.6,29.85,NNW,337,4.0,4.0,56,0.00,,,0.00,WeatherTracker,2013-02-28 03:12:00,
2013-02-27 22:13:00,59.9,44.6,29.85,WNW,292,3.0,3.0,56,0.00,,,0.00,WeatherTracker,2013-02-28 03:13:00,
2013-02-27 22:14:00,59.9,44.6,29.85,NNW,337,3.0,3.0,56,0.00,,,0.00,WeatherTracker,2013-02-28 03:14:00,
2013-02-27 22:16:00,59.9,44.6,29.85,NNW,337,3.0,3.0,56,0.00,,,0.00,WeatherTracker,2013-02-28 03:16:00,
2013-02-27 22:17:00,59.9,44.6,29.85,NNW,337,2.0,3.0,57,0.00,,,0.00,WeatherTracker,2013-02-28 03:17:00,
2013-02-27 22:18:00,59.9,44.6,29.85,WNW,292,2.0,2.0,57,0.00,,,0.00,WeatherTracker,2013-02-28 03:18:00,
2013-02-27 22:19:00,59.9,44.6,29.85,WNW,292,3.0,3.0,57,0.00,,,0.00,WeatherTracker,2013-02-28 03:19:00,
2013-02-27 22:21:00,59.7,44.6,29.85,NNW,337,3.0,3.0,57,0.00,,,0.00,WeatherTracker,2013-02-28 03:21:00,
2013-02-27 22:22:00,59.7,44.6,29.85,North,0,3.0,3.0,57,0.00,,,0.00,WeatherTracker,2013-02-28 03:22:00,
2013-02-27 22:23:00,59.7,44.6,29.85,NNW,337,3.0,3.0,57,0.00,,,0.00,WeatherTracker,2013-02-28 03:23:00,
2013-02-27 22:24:00,59.7,44.6,29.85,NNW,337,2.0,2.0,57,0.00,,,0.00,WeatherTracker,2013-02-28 03:24:00,
2013-02-27 22:27:00,59.7,44.6,29.88,NNW,337,3.0,3.0,57,0.00,,,0.00,WeatherTracker,2013-02-28 03:27:00,
2013-02-27 22:28:00,59.7,44.6,29.88,WNW,292,2.0,2.0,57,0.00,,,0.00,WeatherTracker,2013-02-28 03:28:00,
2013-02-27 22:29:00,59.7,44.6,29.88,NW,315,2.0,2.0,58,0.00,,,0.00,WeatherTracker,2013-02-28 03:29:00,
2013-02-27 22:32:00,59.7,44.6,29.88,WNW,292,1.0,2.0,57,0.00,,,0.00,WeatherTracker,2013-02-28 03:32:00,
2013-02-27 22:33:00,59.7,44.6,29.88,NNW,337,1.0,2.0,57,0.00,,,0.00,WeatherTracker,2013-02-28 03:33:00,
2013-02-27 22:34:00,59.5,44.6,29.88,NNW,337,1.0,2.0,57,0.00,,,0.00,WeatherTracker,2013-02-28 03:34:00,
2013-02-27 22:37:00,59.5,44.6,29.88,NW,315,0.0,2.0,58,0.00,,,0.00,WeatherTracker,2013-02-28 03:37:00,
2013-02-27 22:38:00,59.5,44.6,29.88,WNW,292,2.0,2.0,57,0.00,,,0.00,WeatherTracker,2013-02-28 03:38:00,
2013-02-27 22:39:00,59.5,44.6,29.85,WNW,292,2.0,2.0,57,0.00,,,0.00,WeatherTracker,2013-02-28 03:39:00,
2013-02-27 22:43:00,59.5,44.6,29.85,NNW,337,2.0,3.0,58,0.00,,,0.00,WeatherTracker,2013-02-28 03:43:00,
2013-02-27 22:44:00,59.4,44.6,29.85,NNW,337,2.0,3.0,57,0.00,,,0.00,WeatherTracker,2013-02-28 03:44:00,
2013-02-27 22:48:00,59.4,44.6,29.85,North,0,2.0,3.0,57,0.00,,,0.00,WeatherTracker,2013-02-28 03:48:00,
2013-02-27 22:49:00,59.4,44.6,29.85,NNE,22,2.0,2.0,57,0.00,,,0.00,WeatherTracker,2013-02-28 03:49:00,
2013-02-27 22:50:00,59.4,46.4,29.85,NW,315,2.0,2.0,59,0.00,,,0.00,WeatherTracker,2013-02-28 03:50:00,
2013-02-27 22:53:00,59.4,44.6,29.85,NNE,22,2.0,2.0,58,0.00,,,0.00,WeatherTracker,2013-02-28 03:53:00,
2013-02-27 22:54:00,59.4,44.6,29.85,NNW,337,2.0,2.0,58,0.00,,,0.00,WeatherTracker,2013-02-28 03:54:00,
2013-02-27 22:55:00,59.2,44.6,29.88,NNW,337,2.0,2.0,58,0.00,,,0.00,WeatherTracker,2013-02-28 03:55:00,
2013-02-27 22:58:00,59.2,44.6,29.88,NW,315,1.0,2.0,58,0.00,,,0.00,WeatherTracker,2013-02-28 03:58:00,
2013-02-27 22:59:00,59.2,44.6,29.88,NW,315,1.0,1.0,58,0.00,,,0.00,WeatherTracker,2013-02-28 03:59:00,
2013-02-27 23:01:00,59.2,44.6,29.88,NW,315,0.0,0.0,58,0.00,,,0.00,WeatherTracker,2013-02-28 04:01:00,
2013-02-27 23:03:00,59.2,44.6,29.88,NNW,337,2.0,2.0,58,0.00,,,0.00,WeatherTracker,2013-02-28 04:03:00,
2013-02-27 23:04:00,59.2,44.6,29.88,SW,225,2.0,2.0,58,0.00,,,0.00,WeatherTracker,2013-02-28 04:04:00,
2013-02-27 23:06:00,59.0,44.6,29.88,WNW,292,1.0,1.0,58,0.00,,,0.00,WeatherTracker,2013-02-28 04:06:00,
2013-02-27 23:09:00,59.0,44.6,29.88,NNW,337,1.0,1.0,58,0.00,,,0.00,WeatherTracker,2013-02-28 04:09:00,
2013-02-27 23:11:00,59.0,44.6,29.88,WNW,292,1.0,0.0,58,0.00,,,0.00,WeatherTracker,2013-02-28 04:11:00,
2013-02-27 23:14:00,58.8,44.6,29.88,NNW,337,1.0,1.0,59,0.00,,,0.00,WeatherTracker,2013-02-28 04:14:00,
2013-02-27 23:17:00,58.8,44.6,29.88,SW,225,1.0,0.0,59,0.00,,,0.00,WeatherTracker,2013-02-28 04:17:00,
2013-02-27 23:19:00,58.8,44.6,29.88,SSE,157,1.0,0.0,59,0.00,,,0.00,WeatherTracker,2013-02-28 04:19:00,
2013-02-27 23:22:00,58.6,44.6,29.88,SSE,157,0.0,0.0,60,0.00,,,0.00,WeatherTracker,2013-02-28 04:22:00,
2013-02-27 23:24:00,58.6,44.6,29.88,SSE,157,0.0,0.0,60,0.00,,,0.00,WeatherTracker,2013-02-28 04:24:00,
2013-02-27 23:25:00,58.6,44.6,29.88,SSE,157,0.0,0.0,60,0.00,,,0.00,WeatherTracker,2013-02-28 04:25:00,
2013-02-27 23:27:00,58.5,44.6,29.88,WNW,292,0.0,0.0,60,0.00,,,0.00,WeatherTracker,2013-02-28 04:27:00,
2013-02-27 23:29:00,58.5,44.6,29.88,WNW,292,1.0,2.0,60,0.00,,,0.00,WeatherTracker,2013-02-28 04:29:00,
2013-02-27 23:30:00,58.5,44.6,29.88,WNW,292,1.0,2.0,60,0.00,,,0.00,WeatherTracker,2013-02-28 04:30:00,
2013-02-27 23:33:00,58.5,44.6,29.88,NW,315,1.0,1.0,61,0.00,,,0.00,WeatherTracker,2013-02-28 04:33:00,
2013-02-27 23:34:00,58.5,46.4,29.88,NNE,22,2.0,2.0,62,0.00,,,0.00,WeatherTracker,2013-02-28 04:34:00,
2013-02-27 23:35:00,58.5,46.4,29.88,NW,315,2.0,2.0,62,0.00,,,0.00,WeatherTracker,2013-02-28 04:35:00,
2013-02-27 23:38:00,58.5,44.6,29.88,WNW,292,2.0,2.0,61,0.00,,,0.00,WeatherTracker,2013-02-28 04:38:00,
2013-02-27 23:40:00,58.5,44.6,29.85,NNW,337,2.0,2.0,61,0.00,,,0.00,WeatherTracker,2013-02-28 04:40:00,
2013-02-27 23:43:00,58.5,44.6,29.85,NW,315,2.0,2.0,61,0.00,,,0.00,WeatherTracker,2013-02-28 04:43:00,
2013-02-27 23:45:00,58.5,44.6,29.85,WNW,292,1.0,2.0,61,0.00,,,0.00,WeatherTracker,2013-02-28 04:45:00,
2013-02-27 23:46:00,58.5,44.6,29.85,WNW,292,2.0,2.0,61,0.00,,,0.00,WeatherTracker,2013-02-28 04:46:00,
2013-02-27 23:48:00,58.5,44.6,29.85,WNW,292,1.0,1.0,61,0.00,,,0.00,WeatherTracker,2013-02-28 04:48:00,
2013-02-27 23:50:00,58.5,44.6,29.85,WNW,292,1.0,1.0,61,0.00,,,0.00,WeatherTracker,2013-02-28 04:50:00,
2013-02-27 23:51:00,58.5,44.6,29.85,WNW,292,0.0,0.0,61,0.00,,,0.00,WeatherTracker,2013-02-28 04:51:00,
2013-02-27 23:54:00,58.5,44.6,29.85,NNW,337,0.0,0.0,61,0.00,,,0.00,WeatherTracker,2013-02-28 04:54:00,
2013-02-27 23:55:00,58.5,44.6,29.85,NNW,337,0.0,2.0,61,0.00,,,0.00,WeatherTracker,2013-02-28 04:55:00,
2013-02-27 23:56:00,58.3,46.4,29.85,NW,315,1.0,2.0,62,0.00,,,0.00,WeatherTracker,2013-02-28 04:56:00,
2013-02-27 23:59:00,58.3,44.6,29.85,NNW,337,2.0,2.0,61,0.00,,,0.00,WeatherTracker,2013-02-28 04:59:00,